GFSNW_prec_snow_204.txt.gz
Snowfall_Accumulation
0.0 0.0 0.0 0.0 0.0 0.0 0.0 0.0 20.8 0.0 0.0 10.5 7.1 6.5 0.0 0.0 0.0 0.0 0.0 0.0 0.0 0.0 0.0 0.0 0.0 0.0 0.1 0.0 0.0 0.0 0.2 0.5 1.0 0.0 0.0 0.0 0.3 4.0 8.1 13.2 12.5 8.0 6.1 0.4
0.0 0.0 0.0 0.0 0.0 0.0 0.0 8.5 11.9 0.0 0.0 25.2 12.1 0.1 0.2 0.0 0.0 0.0 0.1 0.1 0.0 0.0 0.0 0.4 0.0 0.0 0.0 0.0 0.0 0.3 0.3 4.8 3.5 0.1 0.0 0.0 1.8 2.2 3.4 10.4 11.6 6.7 9.7 1.8
0.0 0.0 0.0 0.0 0.0 0.0 0.0 9.4 24.4 10.0 1.7 5.2 4.7 4.1 2.5 1.3 0.0 0.0 0.0 0.1 0.0 0.3 0.3 0.1 0.0 0.3 0.0 0.0 0.1 0.0 0.1 4.7 3.7 3.2 1.4 1.2 1.3 1.0 0.6 5.9 9.3 2.9 2.8 0.4
0.0 0.0 0.0 0.0 0.0 0.0 0.0 32.4 21.7 0.1 13.0 10.4 5.4 3.6 1.7 2.2 1.9 0.1 0.1 0.2 1.0 1.8 5.7 1.6 1.8 0.6 0.3 0.0 0.0 0.0 0.9 5.3 0.8 0.0 0.0 0.3 0.1 0.0 0.6 2.7 3.4 6.1 0.4 0.4
0.0 0.0 0.0 0.0 0.0 0.0 2.3 46.6 13.5 2.8 0.8 0.8 3.2 4.5 4.6 2.8 2.1 3.7 2.6 2.7 1.9 1.8 7.9 3.3 6.3 2.9 0.3 1.0 0.6 1.3 0.9 10.2 3.2 1.5 0.2 0.2 0.9 0.6 0.6 0.3 0.2 0.8 0.9 1.1
0.0 0.0 0.0 0.0 0.0 0.0 2.9 2.6 0.0 4.0 3.3 2.4 2.6 2.9 1.1 1.9 3.7 0.3 1.3 4.7 6.6 3.0 2.9 0.2 0.0 0.0 0.0 0.4 1.5 3.6 5.3 7.8 7.2 6.1 0.5 0.7 3.4 0.7 0.0 1.5 2.0 1.7 0.9 1.3
0.0 0.0 0.0 0.0 0.0 0.0 0.0 0.0 0.0 19.1 11.5 3.5 0.5 0.3 0.6 2.2 1.8 2.6 0.8 0.9 2.7 0.0 0.0 0.0 0.0 0.0 0.0 0.0 0.3 0.2 2.3 7.1 9.9 7.9 1.7 9.2 0.5 0.0 0.0 1.7 0.9 0.0 0.2 0.0
0.0 0.0 0.0 0.0 0.0 0.0 0.0 0.0 0.0 16.9 14.4 1.4 1.4 1.5 1.8 0.0 0.0 0.3 0.2 0.1 0.0 0.0 0.0 7.1 2.8 1.4 1.6 1.8 0.4 0.0 0.0 5.2 11.0 9.9 5.1 1.0 0.4 0.2 0.5 1.0 1.0 0.6 0.7 0.1
0.0 0.0 0.0 0.0 0.0 0.0 0.0 0.0 0.0 7.7 22.6 4.8 0.9 1.3 0.3 1.2 1.5 1.7 0.2 0.0 0.0 0.0 3.4 8.2 6.2 7.1 4.6 2.7 2.6 0.2 0.6 2.2 10.5 10.0 11.3 5.4 1.6 0.7 0.0 0.0 6.1 2.3 1.2 0.3
0.0 0.0 0.0 0.0 0.0 0.0 0.0 0.0 0.0 0.0 19.5 0.9 1.8 6.2 1.3 0.0 2.1 3.1 1.4 0.6 0.3 0.0 8.9 9.2 7.0 3.4 0.8 2.1 5.2 8.3 6.1 11.2 16.1 11.6 15.5 4.1 1.5 0.0 0.0 2.8 8.2 1.7 1.3 3.0
0.0 0.0 0.0 0.0 0.0 0.0 0.0 0.0 0.0 0.0 11.3 1.3 0.0 0.0 1.3 1.9 2.3 4.1 3.8 5.1 6.5 7.9 9.3 6.1 5.0 4.1 2.1 2.8 1.4 8.9 11.9 15.0 9.9 12.2 14.1 10.0 1.3 0.4 4.6 3.1 1.6 2.3 2.8 3.6
0.0 0.0 0.0 0.0 0.0 0.0 0.0 0.0 0.0 0.0 6.7 3.4 0.0 0.0 0.0 0.0 0.0 4.2 3.1 5.9 5.3 6.9 11.6 10.2 5.2 5.8 3.6 3.1 4.3 6.1 13.1 11.2 11.5 8.9 7.0 3.9 2.4 2.7 3.3 3.2 3.1 3.4 3.8 2.3
0.0 0.0 0.0 0.0 0.0 0.0 0.0 0.0 0.0 0.0 16.9 11.2 0.0 0.0 0.0 0.0 0.0 0.0 8.0 1.6 0.0 2.4 0.0 10.6 6.6 4.7 2.6 4.0 3.7 5.9 8.1 7.5 14.6 7.7 4.7 2.0 3.6 2.0 2.2 3.1 3.2 1.6 0.0 0.0
0.0 0.0 0.0 0.0 0.0 0.0 0.0 0.0 0.0 0.0 12.9 21.9 2.2 0.0 0.0 0.0 0.0 0.0 0.0 0.0 0.0 0.1 4.2 15.6 9.3 6.1 0.9 1.1 0.9 2.6 8.5 7.4 9.1 12.2 11.7 1.7 3.1 3.4 3.6 2.8 1.4 1.5 0.0 0.0
0.0 0.0 0.0 0.0 0.0 0.0 0.0 0.0 0.0 0.0 1.1 10.9 4.7 0.0 0.0 0.0 0.0 0.0 0.0 0.0 0.3 3.8 14.5 14.5 8.5 1.4 3.2 0.4 1.3 3.9 0.5 2.9 7.0 10.7 7.1 9.1 6.4 8.5 4.7 2.5 0.6 0.0 0.0 0.0
0.0 0.0 0.0 0.0 0.0 0.0 0.0 14.3 0.0 0.0 0.0 15.2 7.8 0.0 0.0 0.0 0.0 0.0 0.0 0.0 0.3 5.7 14.6 9.5 3.1 0.0 4.6 8.6 2.4 0.0 0.0 1.2 3.0 2.7 2.9 4.2 4.7 0.0 0.0 0.8 1.6 1.2 0.0 0.3
0.0 0.0 0.0 0.0 0.0 0.0 2.6 13.6 0.0 0.0 0.0 25.2 16.7 3.7 2.3 0.1 0.0 0.0 0.0 0.0 1.1 2.3 10.8 6.1 1.2 0.5 5.9 6.7 1.8 0.5 0.0 0.1 0.1 0.0 0.7 0.7 0.0 1.2 0.0 0.0 0.0 0.6 0.0 0.0
0.0 0.0 0.0 0.0 0.0 0.0 1.5 0.0 0.0 0.0 1.1 4.8 18.9 5.9 8.6 0.0 3.8 5.6 1.6 3.1 2.8 4.7 4.0 4.5 2.5 2.3 3.8 6.6 0.2 0.0 0.0 0.0 0.2 0.3 0.0 0.1 0.0 0.2 0.0 0.0 0.0 0.3 0.1 0.0
0.0 0.0 0.0 0.0 0.0 17.8 0.0 0.0 0.0 0.0 1.2 13.7 9.7 9.3 13.5 2.1 3.6 3.3 5.9 2.6 10.7 1.8 5.9 1.7 3.2 4.4 6.7 1.3 0.1 0.0 0.0 1.2 0.8 0.5 0.0 0.0 0.5 0.3 0.3 0.3 0.5 0.8 0.3 0.0
0.0 0.0 35.8 57.8 7.8 0.0 0.0 0.0 19.8 16.4 9.4 4.8 7.6 2.9 12.3 3.9 10.9 10.6 10.4 5.8 8.4 8.9 2.0 0.5 5.5 3.6 0.9 0.5 0.2 0.1 0.7 0.6 0.4 2.8 1.1 0.2 0.5 0.4 0.4 0.6 1.0 1.3 0.9 0.4
0.0 30.7 17.2 0.0 0.0 0.0 8.7 26.2 26.0 13.5 12.7 4.0 1.2 0.6 6.2 1.2 15.9 12.6 2.9 19.0 8.0 8.9 2.9 4.4 6.1 5.8 3.0 0.2 1.4 0.0 0.0 0.0 0.2 0.4 0.4 0.7 2.8 3.3 2.0 0.8 0.8 1.2 0.8 0.7
0.0 0.0 0.0 0.0 4.2 14.2 17.2 13.4 13.3 5.7 2.2 1.5 1.0 2.8 4.1 4.7 5.1 19.0 12.7 9.7 14.4 7.3 1.7 11.8 9.0 7.2 0.8 0.2 0.6 0.1 0.0 0.2 0.6 1.1 2.7 2.2 2.6 2.6 2.1 1.9 1.7 1.4 0.9 2.1
0.0 5.6 12.9 18.1 21.6 21.8 14.2 8.5 4.7 4.6 3.8 2.8 6.4 12.3 12.8 10.9 14.0 20.5 13.2 13.7 8.3 1.5 8.7 7.2 8.7 2.1 0.2 0.1 0.3 0.1 0.0 0.6 2.0 2.0 1.4 2.0 1.1 0.5 1.3 1.2 1.4 2.0 3.2 5.2
11.9 24.3 25.7 20.2 15.6 9.6 5.7 2.8 3.8 4.7 4.2 2.1 4.8 16.4 18.1 11.3 16.9 12.7 16.9 12.2 7.8 11.6 8.7 11.0 3.9 1.4 0.9 0.4 0.2 0.0 0.2 0.5 1.1 1.4 0.8 0.8 1.0 1.2 1.8 2.8 4.1 3.6 5.3 7.7
16.0 11.9 11.7 9.9 7.8 5.8 5.6 2.6 0.5 0.7 0.3 1.2 6.7 10.6 14.7 18.2 19.8 13.2 10.9 16.4 13.0 11.9 14.0 10.6 4.9 1.8 1.5 1.3 1.6 1.5 1.0 2.3 3.4 6.0 6.3 5.3 5.0 4.5 5.8 6.3 6.1 5.1 5.6 6.0
9.3 6.9 7.6 6.2 5.0 6.3 4.9 3.6 3.9 1.9 1.9 1.2 3.5 17.3 16.2 20.7 15.2 17.6 12.1 12.4 12.6 13.9 7.5 5.2 3.3 3.1 3.3 3.3 4.2 4.8 5.7 7.6 9.8 10.1 9.8 9.4 8.4 7.2 8.0 8.7 7.8 7.8 6.7 7.3
6.2 8.2 7.3 5.6 5.4 8.0 6.4 5.6 5.4 2.1 5.1 9.4 10.3 13.2 12.4 9.6 9.4 7.8 6.6 9.8 8.8 5.4 4.5 4.9 4.4 4.5 4.8 5.1 5.7 6.4 6.5 6.2 6.9 7.8 7.8 9.4 8.2 7.1 5.8 6.7 8.0 6.9 7.0 6.8

GFSNW_prec_snow_207.txt.gz
Snowfall_Accumulation
0.0 0.0 0.0 0.0 0.0 0.0 0.0 0.0 20.8 0.0 0.0 10.5 10.1 7.5 0.0 0.0 0.0 0.0 0.0 0.0 0.0 0.0 0.0 0.0 0.0 0.0 0.1 0.0 0.0 0.0 0.2 0.5 1.0 0.0 0.0 0.0 0.3 4.0 8.1 13.2 12.5 8.0 6.3 0.4
0.0 0.0 0.0 0.0 0.0 0.0 0.0 8.5 15.8 0.0 0.0 27.6 13.6 0.1 0.2 0.0 0.0 0.0 0.1 0.1 0.0 0.0 0.0 0.4 0.0 0.0 0.0 0.0 0.0 0.3 0.3 4.8 3.5 0.1 0.0 0.0 1.8 2.2 3.4 10.4 11.6 6.7 10.0 1.8
0.0 0.0 0.0 0.0 0.0 0.0 0.0 9.4 27.2 13.3 1.7 6.4 5.2 4.6 3.1 1.8 0.0 0.0 0.0 0.1 0.0 0.4 0.4 0.1 0.0 0.3 0.0 0.0 0.1 0.0 0.1 4.7 3.7 3.2 1.4 1.2 1.3 1.0 0.6 5.9 9.4 2.9 2.8 0.4
0.0 0.0 0.0 0.0 0.0 0.0 0.0 32.4 22.8 0.1 13.9 11.0 5.7 4.0 2.1 2.7 2.2 0.1 0.1 0.3 1.1 1.8 5.7 1.6 1.8 0.6 0.3 0.0 0.0 0.0 0.9 5.3 0.8 0.0 0.0 0.3 0.1 0.0 0.6 2.7 3.4 6.2 0.4 0.4
0.0 0.0 0.0 0.0 0.0 0.0 2.3 46.8 13.7 2.8 1.0 1.2 3.9 4.9 4.8 2.9 2.2 3.7 2.7 2.7 1.9 1.8 7.9 3.3 6.3 2.9 0.3 1.0 0.6 1.3 0.9 10.2 3.2 1.5 0.2 0.2 0.9 0.6 0.6 0.3 0.2 0.8 0.9 1.1
0.0 0.0 0.0 0.0 0.0 0.0 2.9 2.6 0.0 4.0 3.7 2.7 2.8 3.0 1.1 1.9 3.7 0.3 1.3 4.7 6.6 3.0 2.9 0.2 0.0 0.0 0.0 0.4 1.5 3.6 5.3 7.8 7.2 6.1 0.5 0.7 3.4 0.7 0.0 1.5 2.0 1.7 0.9 1.3
0.0 0.0 0.0 0.0 0.0 0.0 0.0 0.0 0.0 19.1 11.7 3.6 0.5 0.3 0.6 2.2 1.8 2.6 0.8 0.9 2.7 0.0 0.0 0.0 0.0 0.0 0.0 0.0 0.3 0.2 2.3 7.1 9.9 7.9 1.7 9.3 0.5 0.0 0.0 1.7 0.9 0.0 0.2 0.0
0.0 0.0 0.0 0.0 0.0 0.0 0.0 0.0 0.0 16.9 14.4 1.4 1.4 1.5 1.8 0.0 0.0 0.3 0.2 0.1 0.0 0.0 0.0 7.1 2.8 1.4 1.6 1.8 0.4 0.0 0.0 5.2 11.0 9.9 5.1 1.0 0.4 0.2 0.5 1.0 1.0 0.6 0.7 0.1
0.0 0.0 0.0 0.0 0.0 0.0 0.0 0.0 0.0 7.7 22.6 4.8 0.9 1.3 0.3 1.2 1.5 1.7 0.2 0.0 0.0 0.0 3.4 8.2 6.2 7.1 4.6 2.7 2.6 0.2 0.6 2.2 10.5 10.0 11.6 5.5 1.6 0.7 0.0 0.0 6.1 2.3 1.2 0.3
0.0 0.0 0.0 0.0 0.0 0.0 0.0 0.0 0.0 0.0 19.5 0.9 1.8 6.2 1.3 0.0 2.1 3.1 1.4 0.6 0.3 0.0 8.9 9.2 7.0 3.4 0.8 2.1 5.2 8.3 6.1 11.2 16.1 11.6 15.5 4.1 1.5 0.0 0.0 2.8 8.2 1.7 1.3 3.0
0.0 0.0 0.0 0.0 0.0 0.0 0.0 0.0 0.0 0.0 11.3 1.3 0.0 0.0 1.3 1.9 2.3 4.1 3.8 5.1 6.5 7.9 9.3 6.1 5.0 4.1 2.1 2.8 1.4 8.9 11.9 15.0 9.9 12.2 14.1 10.0 1.3 0.4 4.6 3.1 1.6 2.3 2.8 3.6
0.0 0.0 0.0 0.0 0.0 0.0 0.0 0.0 0.0 0.0 6.7 3.4 0.0 0.0 0.0 0.0 0.0 4.2 3.1 5.9 5.3 6.9 11.6 10.2 5.2 5.8 3.6 3.1 4.3 6.1 13.1 11.2 11.5 8.9 7.0 3.9 2.4 2.7 3.3 3.2 3.1 3.4 3.8 2.3
0.0 0.0 0.0 0.0 0.0 0.0 0.0 0.0 0.0 0.0 16.9 11.2 0.0 0.0 0.0 0.0 0.0 0.0 8.0 1.6 0.0 2.4 0.0 10.6 6.6 4.7 2.6 4.0 3.7 5.9 8.1 7.5 14.6 7.7 4.7 2.0 3.6 2.0 2.2 3.1 3.2 1.6 0.0 0.0
0.0 0.0 0.0 0.0 0.0 0.0 0.0 0.0 0.0 0.0 12.9 21.9 2.2 0.0 0.0 0.0 0.0 0.0 0.0 0.0 0.0 0.1 4.2 15.6 9.3 6.1 0.9 1.1 0.9 2.6 8.5 7.4 9.1 12.2 11.7 1.7 3.1 3.4 3.6 2.8 1.4 1.5 0.0 0.0
0.0 0.0 0.0 0.0 0.0 0.0 0.0 0.0 0.0 0.0 1.1 10.9 4.7 0.0 0.0 0.0 0.0 0.0 0.0 0.0 0.3 3.8 14.5 14.5 8.5 1.4 3.2 0.4 1.3 3.9 0.5 2.9 7.0 10.7 7.1 9.1 6.4 8.5 4.7 2.5 0.6 0.0 0.0 0.0
0.0 0.0 0.0 0.0 0.0 0.0 0.0 14.3 0.0 0.0 0.0 15.2 7.8 0.0 0.0 0.0 0.0 0.0 0.0 0.0 0.3 5.8 14.6 9.5 3.1 0.0 4.6 8.6 2.4 0.0 0.0 1.2 3.0 2.7 2.9 4.6 5.1 0.0 0.0 0.9 1.6 1.2 0.0 0.3
0.0 0.0 0.0 0.0 0.0 0.0 2.6 13.6 0.0 0.0 0.0 25.2 16.7 3.7 2.3 0.1 0.0 0.0 0.0 0.0 1.1 2.3 10.9 6.1 1.2 0.5 5.9 6.7 1.8 0.5 0.0 0.1 0.1 0.0 1.3 0.7 0.0 1.2 0.0 0.0 0.0 0.6 0.0 0.0
0.0 0.0 0.0 0.0 0.0 0.0 1.5 0.0 0.0 0.0 1.1 4.8 18.9 5.9 8.6 0.0 3.8 5.6 1.6 3.1 2.8 4.7 4.0 4.5 2.5 2.3 3.8 6.7 0.2 0.0 0.0 0.0 0.2 0.3 0.0 0.1 0.0 0.2 0.0 0.0 0.0 0.4 0.1 0.0
0.0 0.0 0.0 0.0 0.0 17.8 0.0 0.0 0.0 0.0 1.2 13.7 9.7 9.3 13.5 2.1 3.6 3.3 5.9 2.6 10.7 1.8 5.9 1.7 3.2 4.4 6.7 1.3 0.1 0.0 0.0 1.2 0.8 0.5 0.0 0.0 0.5 0.3 0.3 0.3 0.5 0.9 0.3 0.0
0.0 0.0 35.8 57.8 7.8 0.0 0.0 0.0 19.8 16.4 9.4 4.8 7.6 2.9 12.3 3.9 10.9 10.6 10.4 5.8 8.4 8.9 2.0 0.5 5.6 3.6 0.9 0.5 0.2 0.1 0.7 0.6 0.4 2.8 1.1 0.2 0.5 0.4 0.4 0.6 1.0 1.6 0.9 0.6
0.0 30.7 17.2 0.0 0.0 0.0 8.7 26.2 26.0 13.5 12.7 4.0 1.2 0.6 6.2 1.2 15.9 12.6 2.9 19.0 8.2 9.2 2.9 4.5 6.3 5.9 3.0 0.2 1.4 0.0 0.0 0.0 0.2 0.4 0.4 0.7 2.8 3.3 2.0 0.8 0.8 1.3 0.8 0.9
0.0 0.0 0.0 0.0 4.2 14.2 17.2 13.4 13.3 5.7 2.2 1.5 1.0 2.8 4.1 4.7 5.2 19.3 13.0 10.0 14.5 7.3 1.7 12.1 9.1 7.2 0.8 0.2 0.6 0.1 0.0 0.2 0.6 1.1 2.7 2.2 2.6 2.6 2.1 1.9 1.7 1.4 0.9 2.1
0.0 5.6 12.9 18.1 21.6 21.8 14.2 8.5 4.7 4.6 3.8 2.8 6.4 12.3 12.8 11.0 14.3 21.0 13.4 13.8 8.3 1.5 9.0 7.2 8.9 2.1 0.2 0.1 0.3 0.1 0.0 0.6 2.0 2.0 1.4 2.0 1.1 0.5 1.3 1.2 1.4 2.0 3.2 5.2
11.9 24.3 25.7 20.2 15.6 9.6 5.7 2.8 3.8 5.2 4.2 2.1 4.8 16.4 18.1 11.3 17.2 12.8 17.0 12.2 7.8 11.8 8.8 11.0 4.3 1.4 0.9 0.4 0.2 0.0 0.2 0.5 1.1 1.4 0.8 0.8 1.0 1.2 1.8 2.8 4.1 3.6 5.3 7.7
16.0 11.9 11.7 9.9 7.8 5.8 5.6 2.6 0.5 0.7 0.3 1.2 6.7 10.6 14.7 18.2 20.0 13.4 10.9 16.6 13.1 11.9 14.0 10.6 4.9 1.8 1.5 1.3 1.6 1.5 1.0 2.3 3.4 6.0 6.3 5.3 5.0 4.5 5.8 6.3 6.1 5.1 5.6 6.0
9.3 6.9 7.6 6.2 5.0 6.3 4.9 3.6 3.9 1.9 1.9 1.2 3.5 17.3 16.2 20.7 15.2 18.0 12.1 12.5 12.6 13.9 7.5 5.2 3.3 3.1 3.3 3.3 4.2 4.8 5.7 7.6 9.8 10.1 9.8 9.4 8.4 7.2 8.0 8.7 7.8 7.8 6.7 7.3
6.2 8.2 7.3 5.6 5.4 8.0 6.4 5.6 5.4 2.1 5.1 9.4 10.3 13.2 12.4 9.6 9.4 7.8 6.6 9.8 8.8 5.4 4.5 4.9 4.4 4.5 4.8 5.1 5.7 6.4 6.5 6.2 6.9 7.8 7.8 9.4 8.2 7.1 5.8 6.7 8.0 6.9 7.0 6.8

GFSNW_prec_snow_210.txt.gz
Snowfall_Accumulation
0.0 0.0 0.0 0.0 0.0 0.0 0.0 0.0 20.8 0.0 0.0 10.5 10.1 9.5 0.0 0.0 0.0 0.0 0.0 0.0 0.0 0.0 0.0 0.0 0.0 0.0 0.1 0.0 0.0 0.0 0.2 0.5 1.0 0.0 0.0 0.0 0.3 4.0 8.1 13.2 12.5 8.0 6.3 0.4
0.0 0.0 0.0 0.0 0.0 0.0 0.0 8.5 15.8 0.0 0.0 30.5 15.5 0.1 0.2 0.0 0.0 0.0 0.1 0.1 0.0 0.0 0.0 0.4 0.1 0.0 0.0 0.0 0.0 0.3 0.3 4.8 3.5 0.1 0.0 0.0 1.8 2.2 3.4 10.4 11.6 6.7 10.3 1.8
0.0 0.0 0.0 0.0 0.0 0.0 0.0 9.4 30.6 16.5 1.7 8.6 5.2 5.1 3.5 2.4 0.0 0.0 0.0 0.1 0.0 0.4 0.4 0.1 0.1 0.4 0.0 0.0 0.1 0.0 0.1 4.7 3.7 3.2 1.4 1.2 1.3 1.0 0.6 5.9 9.6 3.1 2.8 0.4
0.0 0.0 0.0 0.0 0.0 0.0 0.0 32.4 25.1 0.1 15.4 11.0 6.4 4.0 2.1 2.7 3.2 0.1 0.1 0.5 1.2 1.9 6.0 1.8 1.9 0.6 0.4 0.1 0.0 0.0 0.9 5.3 0.8 0.0 0.0 0.3 0.1 0.0 0.6 2.7 3.4 6.5 0.4 0.4
0.0 0.0 0.0 0.0 0.0 0.0 2.3 46.8 13.7 2.8 1.0 1.2 4.6 6.2 5.8 3.4 2.8 4.2 2.8 2.7 1.9 1.9 8.1 3.5 6.4 2.9 0.4 1.0 0.6 1.3 0.9 10.2 3.2 1.5 0.2 0.2 0.9 0.6 0.6 0.3 0.2 0.8 0.9 1.1
0.0 0.0 0.0 0.0 0.0 0.0 2.9 2.6 0.0 4.0 4.8 4.0 4.2 4.1 1.6 2.2 4.2 0.3 1.3 4.7 6.8 3.1 3.0 0.2 0.0 0.0 0.0 0.4 1.5 3.6 5.3 7.8 7.2 6.1 0.5 0.7 3.4 0.7 0.0 1.5 2.0 1.7 0.9 1.3
0.0 0.0 0.0 0.0 0.0 0.0 0.0 0.0 0.0 19.4 12.7 4.4 1.0 0.6 1.0 2.6 2.2 2.8 0.8 0.9 2.7 0.0 0.0 0.0 0.0 0.0 0.0 0.0 0.3 0.2 2.3 7.1 9.9 7.9 1.7 9.3 0.5 0.0 0.0 1.7 0.9 0.0 0.2 0.0
0.0 0.0 0.0 0.0 0.0 0.0 0.0 0.0 0.0 16.9 14.6 1.4 1.8 1.8 2.2 0.3 0.0 0.4 0.2 0.1 0.0 0.0 0.0 7.1 2.8 1.4 1.6 1.8 0.4 0.0 0.0 5.2 11.0 9.9 5.1 1.0 0.4 0.2 0.5 1.0 1.0 0.6 0.7 0.1
0.0 0.0 0.0 0.0 0.0 0.0 0.0 0.0 0.0 7.7 22.6 5.0 0.9 1.3 0.3 1.2 1.6 1.7 0.2 0.0 0.0 0.0 3.4 8.2 6.2 7.1 4.6 2.7 2.6 0.2 0.6 2.2 10.5 10.0 11.6 5.5 1.6 0.7 0.0 0.0 6.1 2.3 1.2 0.3
0.0 0.0 0.0 0.0 0.0 0.0 0.0 0.0 0.0 0.0 19.5 0.9 1.8 6.2 1.3 0.0 2.1 3.1 1.4 0.6 0.3 0.0 8.9 9.2 7.0 3.4 0.8 2.1 5.2 8.3 6.1 11.2 16.1 11.6 15.5 4.1 1.5 0.0 0.0 2.8 8.2 1.7 1.3 3.0
0.0 0.0 0.0 0.0 0.0 0.0 0.0 0.0 0.0 0.0 11.3 1.3 0.0 0.0 1.3 1.9 2.3 4.1 3.8 5.1 6.5 7.9 9.3 6.1 5.0 4.1 2.1 2.8 1.4 8.9 11.9 15.0 9.9 12.2 14.1 10.0 1.3 0.4 4.6 3.1 1.6 2.3 2.8 3.6
0.0 0.0 0.0 0.0 0.0 0.0 0.0 0.0 0.0 0.0 6.7 3.4 0.0 0.0 0.0 0.0 0.0 4.2 3.1 5.9 5.3 6.9 11.6 10.2 5.2 5.8 3.6 3.1 4.3 6.1 13.1 11.2 11.5 8.9 7.0 3.9 2.4 2.7 3.3 3.2 3.1 3.4 3.8 2.3
0.0 0.0 0.0 0.0 0.0 0.0 0.0 0.0 0.0 0.0 16.9 11.2 0.0 0.0 0.0 0.0 0.0 0.0 8.0 1.6 0.0 2.4 0.0 10.6 6.6 4.7 2.6 4.0 3.7 5.9 8.1 7.5 14.6 7.7 4.7 2.0 3.6 2.0 2.2 3.1 3.2 1.6 0.0 0.0
0.0 0.0 0.0 0.0 0.0 0.0 0.0 0.0 0.0 0.0 12.9 21.9 2.2 0.0 0.0 0.0 0.0 0.0 0.0 0.0 0.0 0.1 4.2 15.6 9.3 6.1 0.9 1.1 0.9 2.6 8.5 7.4 9.1 12.2 11.7 1.7 3.1 3.4 3.6 2.8 1.4 1.5 0.0 0.0
0.0 0.0 0.0 0.0 0.0 0.0 0.0 0.0 0.0 0.0 1.1 10.9 4.7 0.0 0.0 0.0 0.0 0.0 0.0 0.0 0.3 3.8 14.5 14.5 8.5 1.4 3.2 0.4 1.3 3.9 0.5 2.9 7.0 10.7 7.1 9.1 6.4 8.5 4.7 2.5 0.6 0.0 0.0 0.0
0.0 0.0 0.0 0.0 0.0 0.0 0.0 14.3 0.0 0.0 0.0 15.2 7.8 0.0 0.0 0.0 0.0 0.0 0.0 0.0 0.3 5.8 14.6 9.5 3.1 0.0 4.6 8.6 2.4 0.0 0.0 1.2 3.0 2.7 2.9 4.6 5.1 0.0 0.0 0.9 1.6 1.2 0.0 0.3
0.0 0.0 0.0 0.0 0.0 0.0 2.6 13.6 0.0 0.0 0.0 25.2 16.7 3.7 2.3 0.1 0.0 0.0 0.0 0.0 1.1 2.3 10.9 6.1 1.2 0.5 5.9 6.7 1.8 0.5 0.0 0.1 0.1 0.0 1.3 0.7 0.0 1.2 0.0 0.0 0.0 0.6 0.0 0.0
0.0 0.0 0.0 0.0 0.0 0.0 1.5 0.0 0.0 0.0 1.1 4.8 18.9 5.9 8.6 0.0 3.8 5.6 1.6 3.1 2.8 4.7 4.0 4.5 2.5 2.3 3.8 6.8 0.2 0.0 0.0 0.0 0.2 0.3 0.0 0.1 0.0 0.2 0.0 0.0 0.0 0.4 0.1 0.0
0.0 0.0 0.0 0.0 0.0 17.8 0.0 0.0 0.0 0.0 1.2 13.7 9.7 9.3 13.5 2.1 3.6 3.3 5.9 2.6 10.7 1.8 5.9 1.7 3.2 4.4 6.7 1.3 0.1 0.0 0.0 1.2 0.8 0.5 0.0 0.0 0.5 0.3 0.3 0.3 0.5 0.9 0.3 0.0
0.0 0.0 35.8 57.8 7.8 0.0 0.0 0.0 19.8 16.4 9.4 4.8 7.6 2.9 12.3 3.9 10.9 10.6 10.4 5.8 8.4 9.0 2.0 0.5 5.8 3.6 0.9 0.5 0.2 0.1 0.7 0.6 0.4 2.8 1.1 0.2 0.5 0.4 0.4 0.6 1.0 1.6 0.9 0.6
0.0 30.7 17.2 0.0 0.0 0.0 8.7 26.2 26.0 13.5 12.7 4.0 1.2 0.6 6.2 1.2 15.9 12.6 2.9 19.0 8.3 9.4 2.9 4.5 6.3 5.9 3.0 0.2 1.4 0.0 0.0 0.0 0.2 0.4 0.4 0.7 2.8 3.3 2.0 0.8 0.8 1.3 0.8 0.9
0.0 0.0 0.0 0.0 4.2 14.2 17.2 13.4 13.3 5.7 2.2 1.5 1.0 2.8 4.1 4.7 5.2 19.3 13.1 10.2 14.7 7.3 1.7 12.4 9.1 7.2 0.8 0.2 0.6 0.1 0.0 0.2 0.6 1.1 2.7 2.2 2.6 2.6 2.1 1.9 1.7 1.4 0.9 2.1
0.0 5.6 12.9 18.1 21.6 21.8 14.2 8.5 4.7 4.6 3.8 2.8 6.4 12.3 12.8 11.0 14.4 21.3 13.8 14.0 8.3 1.6 9.2 7.2 8.9 2.1 0.2 0.1 0.3 0.1 0.0 0.6 2.0 2.0 1.4 2.0 1.1 0.5 1.3 1.2 1.4 2.0 3.2 5.2
11.9 24.3 25.7 20.2 15.6 9.6 5.7 2.8 3.8 5.2 4.2 2.1 4.8 16.4 18.1 11.4 17.4 12.9 17.0 12.2 7.9 11.9 8.9 11.0 4.3 1.4 0.9 0.4 0.2 0.0 0.2 0.5 1.1 1.4 0.8 0.8 1.0 1.2 1.8 2.8 4.1 3.6 5.3 7.7
16.0 11.9 11.7 9.9 7.8 5.8 5.6 2.6 0.5 0.7 0.3 1.2 6.7 10.6 14.7 18.3 20.1 13.5 10.9 16.7 13.1 11.9 14.0 10.6 4.9 1.8 1.5 1.3 1.6 1.5 1.0 2.3 3.4 6.0 6.3 5.3 5.0 4.5 5.8 6.3 6.1 5.1 5.6 6.0
9.3 6.9 7.6 6.2 5.0 6.3 4.9 3.6 3.9 1.9 1.9 1.2 3.5 17.3 16.3 20.7 15.3 18.2 12.1 12.5 12.6 13.9 7.5 5.2 3.3 3.1 3.3 3.3 4.2 4.8 5.7 7.6 9.8 10.1 9.8 9.4 8.4 7.2 8.0 8.7 7.8 7.8 6.7 7.3
6.2 8.2 7.3 5.6 5.4 8.0 6.4 5.6 5.4 2.1 5.1 9.4 10.3 13.2 12.4 9.6 9.5 7.9 6.6 9.8 8.8 5.4 4.5 4.9 4.4 4.5 4.8 5.1 5.7 6.4 6.5 6.2 6.9 7.8 7.8 9.4 8.2 7.1 5.8 6.7 8.0 6.9 7.0 6.8

GFSNW_prec_snow_216.txt.gz
Snowfall_Accumulation
0.0 0.0 0.0 0.0 0.0 0.0 0.0 0.0 20.8 0.0 0.0 10.5 10.1 9.5 0.0 0.0 0.0 0.0 0.0 0.0 0.0 0.0 0.0 0.0 0.0 0.0 0.1 0.0 0.0 0.0 0.2 0.5 1.0 0.0 0.0 0.0 0.3 4.0 8.1 13.2 12.5 8.0 6.3 0.4
0.0 0.0 0.0 0.0 0.0 0.0 0.0 8.5 15.8 0.0 0.0 39.7 21.1 0.1 0.2 0.0 0.0 0.0 0.1 0.1 0.0 0.0 0.0 0.6 0.1 0.0 0.0 0.0 0.0 0.3 0.3 4.8 3.5 0.1 0.0 0.0 1.8 2.2 3.4 10.4 11.6 6.7 10.3 1.8
0.0 0.0 0.0 0.0 0.0 0.0 0.0 9.4 42.7 16.5 1.7 8.6 5.2 5.1 3.5 2.4 0.0 0.0 0.0 0.1 0.0 0.4 0.7 0.1 0.2 0.4 0.0 0.0 0.1 0.0 0.1 4.7 3.7 3.2 1.4 1.2 1.3 1.0 0.6 5.9 9.6 3.1 2.8 0.4
0.0 0.0 0.0 0.0 0.0 0.0 0.0 32.4 36.0 0.1 22.0 12.2 6.4 4.0 2.1 2.7 3.7 0.1 0.1 0.6 1.2 1.9 7.0 3.1 2.3 0.6 0.4 0.1 0.0 0.0 0.9 5.3 0.8 0.0 0.0 0.3 0.1 0.0 0.6 2.7 3.4 6.5 0.4 0.4
0.0 0.0 0.0 0.0 0.0 0.0 2.3 46.8 16.7 2.8 1.0 1.2 4.6 6.2 6.9 4.0 3.7 4.8 3.3 2.9 2.1 2.1 9.4 3.7 6.9 2.9 0.4 1.0 0.6 1.3 0.9 10.2 3.2 1.5 0.2 0.2 0.9 0.6 0.6 0.3 0.2 0.8 0.9 1.1
0.0 0.0 0.0 0.0 0.0 0.0 2.9 2.6 0.0 4.0 4.8 5.1 5.5 5.4 2.4 2.2 4.2 1.3 1.3 4.7 8.4 5.2 4.5 0.2 0.0 0.0 0.0 0.4 1.5 3.6 5.3 7.8 7.2 6.2 0.5 0.7 3.4 0.7 0.0 1.5 2.0 1.7 0.9 1.3
0.0 0.0 0.0 0.0 0.0 0.0 0.0 0.0 0.0 19.4 17.8 6.1 2.2 1.4 1.7 3.3 2.2 4.6 1.4 0.9 3.8 0.0 0.0 0.0 0.0 0.0 0.0 0.0 0.3 0.2 2.3 7.1 9.9 7.9 1.7 9.3 0.5 0.0 0.0 1.7 0.9 0.0 0.2 0.0
0.0 0.0 0.0 0.0 0.0 0.0 0.0 0.0 0.0 16.9 19.2 3.7 3.8 3.4 3.5 1.7 3.3 3.5 2.0 0.3 0.0 0.0 0.0 7.2 3.0 1.5 1.7 1.8 0.4 0.0 0.0 5.2 11.0 9.9 5.1 1.0 0.4 0.2 0.5 1.0 1.0 0.6 0.7 0.1
0.0 0.0 0.0 0.0 0.0 0.0 0.0 0.0 0.0 7.7 24.9 9.3 2.1 4.5 1.0 3.9 4.1 4.2 2.0 0.0 0.0 0.0 3.4 8.2 6.3 7.2 4.6 2.7 2.6 0.2 0.6 2.2 10.5 10.0 11.6 5.5 1.6 0.7 0.0 0.0 6.1 2.3 1.2 0.3
0.0 0.0 0.0 0.0 0.0 0.0 0.0 0.0 0.0 0.0 23.8 1.3 1.8 9.3 4.5 2.3 3.8 4.7 2.7 1.3 0.7 0.0 8.9 9.2 7.0 3.4 0.9 2.1 5.2 8.3 6.1 11.2 16.1 11.6 15.5 4.1 1.5 0.0 0.0 2.8 8.2 1.7 1.3 3.0
0.0 0.0 0.0 0.0 0.0 0.0 0.0 0.0 0.0 0.0 14.2 4.2 2.3 0.0 2.7 2.9 2.3 4.8 4.6 5.4 6.7 8.0 9.3 6.1 5.0 4.1 2.1 2.8 1.4 8.9 11.9 15.0 9.9 12.2 14.1 10.0 1.3 0.4 4.6 3.1 1.6 2.3 2.8 3.6
0.0 0.0 0.0 0.0 0.0 0.0 0.0 0.0 0.0 0.0 8.1 4.8 0.0 0.0 0.0 0.0 0.0 4.2 3.2 5.9 5.3 6.9 11.6 10.2 5.2 5.8 3.6 3.1 4.3 6.1 13.1 11.2 11.5 8.9 7.0 3.9 2.4 2.7 3.3 3.2 3.1 3.4 3.8 2.3
0.0 0.0 0.0 0.0 0.0 0.0 0.0 0.0 0.0 0.0 17.4 11.8 0.0 0.2 0.0 0.0 0.0 0.0 8.0 1.6 0.0 2.4 0.0 10.6 6.6 4.7 2.6 4.0 3.7 5.9 8.1 7.5 14.6 7.7 4.7 2.0 3.6 2.0 2.2 3.1 3.2 1.6 0.0 0.0
0.0 0.0 0.0 0.0 0.0 0.0 0.0 0.0 0.0 0.0 12.9 22.0 2.3 0.0 0.0 0.0 0.0 0.0 0.0 0.0 0.0 0.1 4.2 15.6 9.3 6.1 0.9 1.1 0.9 2.6 8.5 7.4 9.1 12.2 11.7 1.7 3.1 3.4 3.6 2.8 1.4 1.5 0.0 0.0
0.0 0.0 0.0 0.0 0.0 0.0 0.0 0.0 0.0 0.0 1.1 10.9 4.7 0.0 0.0 0.0 0.0 0.0 0.0 0.0 0.3 3.8 14.5 14.5 8.5 1.4 3.2 0.4 1.3 3.9 0.5 2.9 7.0 10.7 7.1 9.1 6.4 8.5 4.7 2.5 0.6 0.0 0.0 0.0
0.0 0.0 0.0 0.0 0.0 0.0 0.0 14.3 0.0 0.0 0.0 15.2 7.8 0.0 0.0 0.0 0.0 0.0 0.0 0.0 0.3 5.8 14.6 9.5 3.1 0.0 4.6 8.6 2.4 0.0 0.0 1.2 3.0 2.7 2.9 4.6 5.1 0.0 0.0 0.9 1.6 1.2 0.0 0.3
0.0 0.0 0.0 0.0 0.0 0.0 2.6 13.6 0.0 0.0 0.0 25.2 16.7 3.7 2.3 0.1 0.0 0.0 0.0 0.0 1.1 2.3 10.9 6.1 1.2 0.5 5.9 6.7 1.8 0.5 0.0 0.1 0.1 0.0 1.3 0.7 0.0 1.2 0.0 0.0 0.0 0.6 0.0 0.0
0.0 0.0 0.0 0.0 0.0 0.0 1.5 0.0 0.0 0.0 1.1 4.8 18.9 5.9 8.6 0.0 3.8 5.6 1.6 3.1 2.8 4.7 4.0 4.5 2.5 2.3 3.8 6.8 0.2 0.0 0.0 0.0 0.2 0.3 0.0 0.1 0.0 0.2 0.0 0.0 0.0 0.4 0.1 0.0
0.0 0.0 0.0 0.0 0.0 17.8 0.0 0.0 0.0 0.0 1.2 13.7 9.7 9.3 13.5 2.1 3.6 3.3 5.9 2.6 10.7 1.8 5.9 1.7 3.2 4.4 6.7 1.3 0.1 0.0 0.0 1.2 0.8 0.5 0.0 0.0 0.5 0.3 0.3 0.3 0.5 0.9 0.3 0.0
0.0 0.0 35.8 57.8 7.8 0.0 0.0 0.0 19.8 16.4 9.4 4.8 7.6 2.9 12.3 3.9 10.9 10.6 10.4 5.8 8.4 9.0 2.0 0.5 5.8 3.6 0.9 0.5 0.2 0.1 0.7 0.6 0.4 2.8 1.1 0.2 0.5 0.4 0.4 0.6 1.0 1.6 0.9 0.6
0.0 30.7 17.2 0.0 0.0 0.0 8.7 26.2 26.0 13.5 12.7 4.0 1.2 0.6 6.2 1.2 15.9 12.6 2.9 19.0 8.3 9.4 2.9 4.6 6.3 5.9 3.0 0.2 1.4 0.0 0.0 0.0 0.2 0.4 0.4 0.7 2.8 3.3 2.0 0.8 0.8 1.3 0.8 0.9
0.0 0.0 0.0 0.0 4.2 14.2 17.2 13.4 13.3 5.7 2.2 1.5 1.0 2.8 4.1 4.7 5.2 19.3 13.1 10.2 14.7 7.4 1.7 12.6 9.1 7.2 0.8 0.2 0.6 0.1 0.0 0.2 0.6 1.1 2.7 2.2 2.6 2.6 2.1 1.9 1.7 1.4 0.9 2.1
0.0 5.6 12.9 18.1 21.6 21.8 14.2 8.5 4.7 4.6 3.8 2.8 6.4 12.3 12.8 11.1 14.4 21.3 13.8 14.1 8.4 1.7 9.5 7.3 8.9 2.1 0.2 0.1 0.3 0.1 0.0 0.6 2.0 2.0 1.4 2.0 1.1 0.5 1.3 1.2 1.4 2.0 3.2 5.2
11.9 24.3 25.7 20.2 15.6 9.6 5.7 2.8 3.8 5.2 4.3 2.1 4.8 16.4 18.1 11.4 17.5 12.9 17.1 12.3 8.0 12.1 9.0 11.0 4.3 1.4 0.9 0.4 0.2 0.0 0.2 0.5 1.1 1.4 0.8 0.8 1.0 1.2 1.8 2.8 4.1 3.6 5.3 7.7
16.0 11.9 11.7 9.9 7.8 5.8 5.6 2.6 0.5 0.7 0.3 1.2 6.7 10.6 14.7 18.3 20.3 13.7 11.0 16.8 13.2 11.9 14.0 10.6 4.9 1.8 1.5 1.3 1.6 1.5 1.0 2.3 3.4 6.0 6.3 5.3 5.0 4.5 5.8 6.3 6.1 5.1 5.6 6.0
9.3 6.9 7.6 6.2 5.0 6.3 4.9 3.6 4.0 1.9 1.9 1.2 3.5 17.3 16.3 20.7 15.3 18.4 12.1 12.5 12.6 13.9 7.5 5.2 3.3 3.1 3.3 3.3 4.2 4.8 5.7 7.6 9.8 10.1 9.8 9.4 8.4 7.2 8.0 8.7 7.8 7.8 6.7 7.3
6.2 8.2 7.3 5.6 5.4 8.0 6.4 5.6 5.4 2.1 5.1 9.4 10.3 13.2 12.4 9.6 9.6 7.9 6.6 9.8 8.8 5.4 4.5 4.9 4.4 4.5 4.8 5.1 5.7 6.4 6.5 6.2 6.9 7.8 7.8 9.4 8.2 7.1 5.8 6.7 8.0 6.9 7.0 6.8

GFSNW_prec_snow_222.txt.gz
Snowfall_Accumulation
0.0 0.0 0.0 0.0 0.0 0.0 0.0 0.0 20.8 0.0 0.0 10.5 10.1 9.5 0.0 0.0 0.0 0.0 0.0 0.0 0.0 0.0 0.0 0.0 0.0 0.0 0.1 0.0 0.0 0.0 0.2 0.5 1.0 0.0 0.0 0.0 0.3 4.0 8.1 13.2 12.5 8.0 6.3 0.4
0.0 0.0 0.0 0.0 0.0 0.0 0.0 8.5 15.8 0.0 0.0 53.4 29.9 0.1 0.2 0.0 0.0 0.0 0.1 0.1 0.0 0.0 0.0 0.6 0.1 0.0 0.0 0.0 0.0 0.3 0.3 4.8 3.5 0.1 0.0 0.0 1.8 2.2 3.4 10.4 11.6 6.7 10.3 1.8
0.0 0.0 0.0 0.0 0.0 0.0 0.0 9.4 55.9 16.5 1.7 8.6 5.2 5.1 3.5 2.4 0.0 0.0 0.0 0.1 0.0 0.4 0.7 0.1 0.2 0.4 0.0 0.0 0.1 0.0 0.1 4.7 3.7 3.2 1.4 1.2 1.3 1.0 0.6 5.9 9.6 3.1 2.8 0.4
0.0 0.0 0.0 0.0 0.0 0.0 0.0 32.4 45.1 0.1 28.7 18.7 6.4 4.0 2.1 2.7 3.7 0.1 0.1 0.6 1.2 1.9 7.0 3.1 2.3 0.6 0.4 0.1 0.0 0.0 0.9 5.3 0.8 0.0 0.0 0.3 0.1 0.0 0.6 2.7 3.4 6.5 0.4 0.4
0.0 0.0 0.0 0.0 0.0 0.0 2.3 46.8 19.1 2.8 1.0 1.2 4.6 6.2 6.9 4.0 3.7 4.8 3.3 2.9 2.1 2.1 9.4 3.7 6.9 2.9 0.4 1.0 0.6 1.3 0.9 10.2 3.2 1.5 0.2 0.2 0.9 0.6 0.6 0.3 0.2 0.8 0.9 1.1
0.0 0.0 0.0 0.0 0.0 0.0 2.9 2.6 0.0 4.0 4.8 5.1 5.5 5.4 2.4 2.2 4.2 1.3 1.3 4.7 8.4 5.2 4.5 0.2 0.0 0.0 0.0 0.4 1.5 3.6 5.3 7.9 7.6 6.7 0.5 0.7 3.4 0.7 0.0 1.5 2.0 1.7 0.9 1.3
0.0 0.0 0.0 0.0 0.0 0.0 0.0 0.0 0.0 19.4 17.8 6.1 2.2 1.4 1.7 3.3 2.2 4.6 1.4 0.9 3.8 0.0 0.0 0.0 0.0 0.0 0.0 0.0 0.3 0.2 2.3 7.1 10.0 8.9 2.2 9.7 0.5 0.0 0.0 1.7 0.9 0.0 0.2 0.0
0.0 0.0 0.0 0.0 0.0 0.0 0.0 0.0 0.0 16.9 22.5 3.7 3.8 3.4 3.5 1.7 3.3 3.5 2.0 0.3 0.0 0.0 0.0 9.6 8.8 6.0 4.9 4.1 0.4 0.0 0.0 5.7 11.5 10.4 5.4 1.0 0.4 0.2 0.5 1.0 1.0 0.6 0.7 0.1
0.0 0.0 0.0 0.0 0.0 0.0 0.0 0.0 0.0 7.7 24.9 9.3 2.1 4.5 1.0 5.6 6.2 6.6 6.3 0.0 0.0 0.0 8.4 13.3 10.0 9.0 5.4 3.1 2.8 0.2 0.6 2.2 10.7 10.6 12.1 5.5 1.6 0.7 0.0 0.0 6.1 2.3 1.2 0.3
0.0 0.0 0.0 0.0 0.0 0.0 0.0 0.0 0.0 0.0 23.8 1.3 1.8 9.3 4.5 2.3 3.8 8.4 7.1 4.3 3.4 0.0 11.7 12.1 9.0 4.3 1.0 2.2 5.2 8.5 6.6 12.0 16.5 11.9 15.5 4.1 1.5 0.0 0.0 2.8 8.2 1.7 1.3 3.0
0.0 0.0 0.0 0.0 0.0 0.0 0.0 0.0 0.0 0.0 14.2 6.3 2.3 0.0 4.5 4.7 2.3 7.9 9.6 8.9 10.4 10.9 11.9 8.2 6.4 4.6 2.2 2.8 1.4 8.9 11.9 15.4 10.2 12.5 14.3 10.1 1.3 0.4 4.6 3.1 1.6 2.3 2.8 3.6
0.0 0.0 0.0 0.0 0.0 0.0 0.0 0.0 0.0 0.0 8.1 7.0 0.0 0.0 0.0 0.0 0.0 4.2 6.3 7.0 6.4 7.4 13.1 11.5 5.8 6.0 3.7 3.1 4.3 6.1 13.1 11.2 11.5 8.9 7.0 3.9 2.4 2.7 3.3 3.2 3.1 3.4 3.8 2.3
0.0 0.0 0.0 0.0 0.0 0.0 0.0 0.0 0.0 0.0 18.4 13.8 0.0 1.8 0.0 0.0 0.0 0.0 9.5 4.0 0.0 2.4 0.0 10.6 7.0 4.9 2.7 4.2 3.7 5.9 8.1 7.5 14.6 7.7 4.7 2.0 3.6 2.0 2.2 3.1 3.2 1.6 0.0 0.0
0.0 0.0 0.0 0.0 0.0 0.0 0.0 0.0 0.0 0.0 12.9 23.7 4.4 0.0 0.0 0.0 0.0 0.0 0.0 0.0 0.0 0.1 4.2 15.9 9.7 6.2 0.9 1.1 0.9 2.6 8.5 7.4 9.1 12.2 11.7 1.7 3.1 3.4 3.6 2.8 1.4 1.5 0.0 0.0
0.0 0.0 0.0 0.0 0.0 0.0 0.0 0.0 0.0 0.0 1.1 11.7 6.3 0.0 0.0 0.0 0.0 0.0 0.0 0.0 0.3 3.8 14.8 14.9 8.8 1.4 3.2 0.4 1.3 3.9 0.5 2.9 7.0 10.7 7.1 9.1 6.4 8.5 4.7 2.5 0.6 0.0 0.0 0.0
0.0 0.0 0.0 0.0 0.0 0.0 0.0 14.6 0.0 0.0 0.0 15.2 8.6 0.0 0.0 0.0 0.0 0.0 0.0 0.0 0.3 5.8 14.7 9.6 3.1 0.0 4.6 8.6 2.4 0.0 0.0 1.2 3.0 2.7 2.9 4.6 5.1 0.0 0.0 0.9 1.6 1.2 0.0 0.3
0.0 0.0 0.0 0.0 0.0 0.0 2.6 14.6 0.0 0.0 0.0 25.2 17.0 4.1 2.9 0.1 0.0 0.0 0.0 0.0 1.1 2.3 10.9 6.1 1.2 0.5 5.9 6.7 1.8 0.5 0.0 0.1 0.1 0.0 1.3 0.7 0.0 1.2 0.0 0.0 0.0 0.6 0.0 0.0
0.0 0.0 0.0 0.0 0.0 0.0 1.5 0.0 0.0 0.0 1.1 4.8 19.0 6.3 8.9 0.0 3.8 5.6 1.6 3.1 2.8 4.7 4.0 4.5 2.5 2.3 3.8 6.8 0.2 0.0 0.0 0.0 0.2 0.3 0.0 0.1 0.0 0.2 0.0 0.0 0.0 0.4 0.1 0.0
0.0 0.0 0.0 0.0 0.0 18.1 0.0 0.0 0.0 0.0 1.2 13.8 9.7 9.3 13.7 2.1 3.6 3.3 5.9 2.6 10.7 1.8 5.9 1.7 3.2 4.4 6.7 1.3 0.1 0.0 0.0 1.2 0.8 0.5 0.0 0.0 0.5 0.3 0.3 0.3 0.5 0.9 0.3 0.0
0.0 0.0 35.8 57.8 7.8 0.0 0.0 0.0 19.8 16.4 9.4 4.8 7.6 2.9 12.3 3.9 10.9 10.6 10.4 5.8 8.4 9.0 2.0 0.5 5.8 3.6 0.9 0.5 0.2 0.1 0.7 0.6 0.4 2.8 1.1 0.2 0.6 0.4 0.4 0.6 1.0 1.6 0.9 0.6
0.0 30.7 17.2 0.0 0.0 0.0 8.7 26.2 26.0 13.5 12.7 4.0 1.2 0.6 6.2 1.2 15.9 12.6 3.0 19.1 8.3 9.4 3.0 4.6 6.4 5.9 3.0 0.2 1.4 0.0 0.0 0.0 0.2 0.4 0.4 0.7 2.8 3.3 2.0 0.8 0.8 1.3 0.8 0.9
0.0 0.0 0.0 0.0 4.2 14.2 17.2 13.4 13.3 5.7 2.2 1.5 1.0 2.8 4.1 4.8 5.2 19.3 13.2 10.3 14.8 7.5 1.7 12.7 9.1 7.2 0.8 0.2 0.6 0.1 0.0 0.2 0.6 1.1 2.7 2.2 2.6 2.6 2.1 1.9 1.7 1.4 0.9 2.1
0.0 5.6 12.9 18.1 21.6 21.8 14.2 8.5 4.7 4.6 3.9 2.9 6.4 12.5 12.8 11.1 14.4 21.3 13.8 14.1 8.5 1.7 9.6 7.3 8.9 2.1 0.2 0.1 0.3 0.1 0.0 0.6 2.0 2.0 1.4 2.0 1.1 0.5 1.3 1.2 1.4 2.0 3.2 5.2
11.9 24.3 25.7 20.2 15.6 9.6 5.7 2.8 3.8 5.2 4.3 2.2 4.8 16.4 18.2 11.4 17.5 12.9 17.2 12.5 8.1 12.2 9.1 11.0 4.4 1.4 0.9 0.4 0.2 0.0 0.2 0.5 1.1 1.4 0.8 0.8 1.0 1.2 1.8 2.8 4.1 3.6 5.3 7.7
16.0 11.9 11.7 9.9 7.8 5.9 5.6 2.6 0.5 0.8 0.3 1.2 6.7 10.6 14.7 18.3 20.3 13.7 11.1 16.8 13.4 12.0 14.1 10.8 5.1 1.8 1.5 1.3 1.6 1.5 1.0 2.3 3.4 6.0 6.3 5.3 5.0 4.5 5.8 6.3 6.1 5.1 5.6 6.0
9.3 6.9 7.7 6.2 5.0 6.4 5.2 4.0 4.2 1.9 1.9 1.2 3.5 17.3 16.3 20.7 15.4 18.4 12.1 12.6 12.7 14.0 7.9 5.4 3.3 3.1 3.3 3.3 4.2 4.8 5.7 7.6 9.8 10.1 9.8 9.4 8.4 7.2 8.0 8.7 7.8 7.8 6.7 7.3
6.2 8.2 7.3 5.7 5.5 8.0 6.8 6.0 5.9 2.1 5.3 9.6 10.3 13.2 12.4 9.7 9.7 7.9 6.7 9.8 9.2 5.4 4.7 4.9 4.4 4.5 4.8 5.1 5.7 6.4 6.5 6.2 6.9 7.8 7.8 9.4 8.2 7.1 5.8 6.7 8.0 7.0 7.0 6.8

GFSNW_prec_snow_225.txt.gz
Snowfall_Accumulation
0.0 0.0 0.0 0.0 0.0 0.0 0.0 0.0 25.1 0.0 0.0 10.5 10.1 9.5 0.0 0.0 0.0 0.0 0.0 0.0 0.0 0.0 0.0 0.0 0.0 0.0 0.1 0.0 0.0 0.0 0.2 0.5 1.0 0.0 0.0 0.0 0.3 4.0 8.1 13.2 12.5 8.0 6.3 0.4
0.0 0.0 0.0 0.0 0.0 0.0 0.0 8.5 15.8 0.0 0.0 53.4 36.0 0.1 0.2 0.0 0.0 0.0 0.1 0.1 0.0 0.0 0.0 0.6 0.1 0.0 0.0 0.0 0.0 0.3 0.3 4.8 3.5 0.1 0.0 0.0 1.8 2.2 3.4 10.4 11.6 6.7 10.3 1.8
0.0 0.0 0.0 0.0 0.0 0.0 0.0 9.4 57.8 16.5 1.7 8.6 5.2 5.1 3.5 2.4 0.0 0.0 0.0 0.1 0.0 0.4 0.7 0.1 0.2 0.4 0.0 0.0 0.1 0.0 0.1 4.7 3.7 3.2 1.4 1.2 1.3 1.0 0.6 5.9 9.6 3.1 2.8 0.4
0.0 0.0 0.0 0.0 0.0 0.0 0.0 32.4 46.2 0.1 28.7 25.7 6.4 4.0 2.1 2.7 3.7 0.1 0.1 0.6 1.2 1.9 7.0 3.1 2.3 0.6 0.4 0.1 0.0 0.0 0.9 5.3 0.8 0.0 0.0 0.3 0.1 0.0 0.6 2.7 3.4 6.5 0.4 0.4
0.0 0.0 0.0 0.0 0.0 0.0 2.3 46.8 19.7 2.8 1.0 1.2 4.6 6.2 6.9 4.0 3.7 4.8 3.3 2.9 2.1 2.1 9.4 3.7 6.9 2.9 0.4 1.0 0.6 1.3 0.9 10.2 3.2 1.5 0.2 0.2 0.9 0.6 0.6 0.3 0.2 0.8 0.9 1.1
0.0 0.0 0.0 0.0 0.0 0.0 2.9 2.6 0.0 4.0 4.8 5.1 5.5 5.4 2.4 2.2 4.2 1.3 1.3 4.7 8.4 5.2 4.5 0.2 0.0 0.0 0.0 0.4 1.5 3.6 5.3 7.9 7.6 6.7 0.5 0.7 4.9 0.7 0.0 1.5 2.0 1.7 0.9 1.3
0.0 0.0 0.0 0.0 0.0 0.0 0.0 0.0 0.0 19.4 19.7 6.1 2.2 1.4 1.7 3.3 2.2 4.6 1.4 0.9 3.8 0.0 0.0 0.0 0.0 0.0 0.0 0.0 0.3 0.2 2.3 7.1 10.0 10.7 3.2 11.1 0.5 0.0 0.0 1.7 0.9 0.0 0.2 0.0
0.0 0.0 0.0 0.0 0.0 0.0 0.0 0.0 0.0 16.9 24.1 3.7 3.8 3.4 3.5 1.7 3.3 3.5 2.0 0.3 0.0 0.0 0.0 9.6 11.8 9.1 8.1 6.9 0.4 0.0 0.0 5.7 13.3 11.4 6.0 1.0 0.4 0.2 0.5 1.0 1.0 0.6 0.7 0.1
0.0 0.0 0.0 0.0 0.0 0.0 0.0 0.0 0.0 7.7 24.9 9.3 2.1 4.5 1.0 5.6 6.2 6.6 6.3 0.0 0.0 0.0 8.4 16.2 12.6 11.1 6.7 4.0 3.5 0.2 0.6 2.2 11.8 11.7 12.5 5.6 1.6 0.7 0.0 0.0 6.1 2.3 1.2 0.3
0.0 0.0 0.0 0.0 0.0 0.0 0.0 0.0 0.0 0.0 23.8 1.3 1.8 9.3 4.5 2.3 3.8 8.4 7.1 4.3 3.4 0.0 11.7 14.2 10.8 5.8 1.0 2.6 5.3 8.8 7.8 13.5 17.6 12.5 15.8 4.1 1.5 0.0 0.0 2.8 8.2 1.7 1.3 3.0
0.0 0.0 0.0 0.0 0.0 0.0 0.0 0.0 0.0 0.0 14.2 6.3 2.3 0.0 4.5 4.7 2.3 7.9 10.7 9.5 11.3 12.2 14.0 10.9 8.5 5.5 2.6 2.8 1.4 8.9 11.9 16.2 11.1 13.3 14.8 10.2 1.3 0.4 4.6 3.1 1.6 2.3 2.8 3.6
0.0 0.0 0.0 0.0 0.0 0.0 0.0 0.0 0.0 0.0 8.1 7.2 0.0 0.0 0.0 0.0 0.0 4.2 6.3 7.0 6.4 7.4 14.4 13.4 6.9 6.8 4.1 3.1 4.5 6.1 13.4 11.2 11.7 8.9 7.0 3.9 2.4 2.7 3.3 3.2 3.1 3.4 3.8 2.3
0.0 0.0 0.0 0.0 0.0 0.0 0.0 0.0 0.0 0.0 18.4 14.2 0.0 1.8 0.0 0.0 0.0 0.0 9.5 6.0 0.0 2.4 0.0 11.7 8.3 6.0 3.1 4.6 4.0 5.9 8.1 7.5 14.7 7.7 4.7 2.0 3.6 2.0 2.2 3.1 3.2 1.6 0.0 0.0
0.0 0.0 0.0 0.0 0.0 0.0 0.0 0.0 0.0 0.0 12.9 24.6 4.8 0.0 0.0 0.0 0.0 0.0 0.0 0.0 0.0 0.1 4.2 17.1 11.2 6.7 0.9 1.1 0.9 2.6 8.5 7.4 9.1 12.2 11.7 1.7 3.1 3.4 3.6 2.8 1.4 1.5 0.0 0.0
0.0 0.0 0.0 0.0 0.0 0.0 0.0 0.0 0.0 0.0 1.1 13.2 7.1 0.0 0.0 0.0 0.0 0.0 0.0 0.0 0.3 3.8 15.7 16.0 9.4 1.4 3.2 0.4 1.3 3.9 0.5 2.9 7.0 10.7 7.1 9.1 6.4 8.5 4.7 2.5 0.6 0.0 0.0 0.0
0.0 0.0 0.0 0.0 0.0 0.0 0.0 17.3 0.0 0.0 0.0 16.4 9.9 0.0 0.0 0.0 0.0 0.0 0.0 0.0 0.3 5.8 15.2 10.0 3.1 0.0 4.6 8.6 2.4 0.0 0.0 1.2 3.0 2.7 2.9 4.6 5.1 0.0 0.0 0.9 1.6 1.2 0.0 0.3
0.0 0.0 0.0 0.0 0.0 0.0 2.6 14.6 0.0 0.0 0.0 26.3 18.4 5.6 4.8 0.1 0.0 0.0 0.0 0.0 1.1 2.3 10.9 6.1 1.2 0.5 5.9 6.7 1.8 0.5 0.0 0.1 0.1 0.0 1.3 0.7 0.0 1.2 0.0 0.0 0.0 0.6 0.0 0.0
0.0 0.0 0.0 0.0 0.0 0.0 5.0 0.0 0.0 0.0 1.1 4.8 19.6 7.7 10.6 0.0 4.7 6.2 1.6 3.2 2.8 4.7 4.0 4.5 2.5 2.3 3.8 6.8 0.2 0.0 0.0 0.0 0.2 0.3 0.0 0.1 0.0 0.2 0.0 0.0 0.0 0.4 0.1 0.0
0.0 0.0 0.0 0.0 0.0 20.1 0.0 0.0 0.0 0.0 1.2 14.6 10.0 9.5 14.4 2.1 3.7 3.3 5.9 2.6 10.7 1.8 5.9 1.7 3.2 4.4 6.7 1.3 0.1 0.0 0.0 1.2 0.8 0.5 0.0 0.0 0.5 0.3 0.3 0.3 0.5 0.9 0.3 0.0
0.0 0.0 35.9 58.2 7.8 0.0 0.0 0.0 20.3 16.4 9.4 4.8 7.7 2.9 12.4 3.9 10.9 10.6 10.4 5.8 8.4 9.0 2.0 0.5 5.8 3.6 0.9 0.5 0.2 0.1 0.7 0.6 0.4 2.8 1.1 0.2 0.6 0.4 0.4 0.6 1.0 1.6 0.9 0.6
0.0 30.7 17.3 0.0 0.0 0.0 8.7 26.4 26.2 13.5 13.1 4.3 1.4 0.6 6.2 1.2 15.9 12.6 3.0 19.1 8.3 9.4 3.0 4.6 6.4 5.9 3.0 0.2 1.4 0.0 0.0 0.0 0.2 0.4 0.4 0.7 2.8 3.3 2.0 0.8 0.8 1.3 0.8 0.9
0.0 0.0 0.0 0.0 4.2 14.3 17.2 13.4 13.3 5.8 2.4 1.6 1.2 3.1 4.3 4.9 5.2 19.3 13.2 10.3 14.8 7.5 1.7 12.7 9.1 7.2 0.8 0.2 0.6 0.1 0.0 0.2 0.6 1.1 2.7 2.2 2.6 2.6 2.1 1.9 1.7 1.4 0.9 2.1
0.0 5.6 12.9 18.1 21.7 21.8 14.2 8.5 4.7 4.6 3.9 2.9 6.5 12.6 12.8 11.1 14.4 21.3 13.8 14.1 8.5 1.7 9.6 7.3 8.9 2.1 0.2 0.1 0.3 0.1 0.0 0.6 2.0 2.0 1.4 2.0 1.1 0.5 1.3 1.2 1.4 2.0 3.2 5.2
11.9 24.3 25.7 20.2 15.6 9.6 5.7 2.8 3.8 5.2 4.3 2.2 4.8 16.4 18.2 11.4 17.5 12.9 17.2 12.5 8.1 12.2 9.1 11.0 4.4 1.4 0.9 0.4 0.2 0.0 0.2 0.5 1.1 1.4 0.8 0.8 1.0 1.2 1.8 2.8 4.1 3.6 5.3 7.7
16.0 11.9 11.7 9.9 7.8 5.9 5.6 2.6 0.5 0.8 0.3 1.2 6.7 10.6 14.7 18.3 20.3 13.7 11.1 16.8 13.4 12.0 14.1 10.8 5.1 1.8 1.5 1.3 1.6 1.5 1.0 2.3 3.4 6.0 6.3 5.3 5.0 4.5 5.8 6.3 6.1 5.1 5.6 6.0
9.3 6.9 7.7 6.2 5.0 6.4 5.2 4.0 4.2 1.9 1.9 1.2 3.5 17.3 16.3 20.7 15.4 18.4 12.1 12.6 12.7 14.0 7.9 5.4 3.3 3.1 3.3 3.3 4.2 4.8 5.7 7.6 9.8 10.1 9.8 9.4 8.4 7.2 8.0 8.7 7.8 7.8 6.7 7.3
6.2 8.2 7.3 5.7 5.5 8.0 6.8 6.0 5.9 2.1 5.3 9.6 10.3 13.2 12.4 9.7 9.7 7.9 6.7 9.8 9.2 5.4 4.7 4.9 4.4 4.5 4.8 5.1 5.7 6.4 6.5 6.2 6.9 7.8 7.8 9.4 8.2 7.1 5.8 6.7 8.0 7.0 7.0 6.8

GFSNW_prec_snow_231.txt.gz
Snowfall_Accumulation
0.0 0.0 0.0 0.0 0.0 0.0 0.0 0.0 28.1 0.0 0.0 10.5 18.2 22.1 4.1 0.0 0.0 0.0 0.0 0.0 0.0 0.0 0.0 0.0 0.0 0.0 0.1 0.0 0.0 0.0 0.2 0.5 1.0 0.0 0.0 0.0 0.3 4.0 8.1 13.2 12.5 8.0 6.3 0.4
0.0 0.0 0.0 0.0 0.0 0.0 0.0 8.5 16.9 0.0 0.0 65.2 51.1 4.5 0.2 0.0 0.0 0.0 0.1 0.1 0.0 0.0 0.0 0.6 0.1 0.0 0.0 0.0 0.0 0.3 0.3 4.8 3.5 0.1 0.0 0.0 1.8 2.2 3.4 10.4 11.6 6.7 10.3 1.8
0.0 0.0 0.0 0.0 0.0 0.0 0.0 9.4 59.5 16.5 1.7 8.6 11.9 9.0 4.4 2.9 0.0 0.0 0.0 0.1 0.0 0.4 0.7 0.1 0.2 0.4 0.0 0.0 0.1 0.0 0.1 4.7 3.7 3.2 1.4 1.2 1.3 1.0 0.6 5.9 9.6 3.1 2.8 0.4
0.0 0.0 0.0 0.0 0.0 0.0 0.0 34.2 47.2 0.1 33.7 31.9 7.9 4.0 2.1 2.7 3.7 0.1 0.1 0.6 1.2 1.9 7.0 3.1 2.3 0.6 0.4 0.1 0.0 0.0 0.9 5.3 0.8 0.0 0.0 0.3 0.1 0.0 0.6 2.7 3.4 6.5 0.4 0.4
0.0 0.0 0.0 0.0 0.0 0.0 2.3 48.1 20.3 2.8 1.6 1.2 5.1 6.2 8.1 4.0 3.7 4.8 3.3 2.9 2.1 2.1 9.4 3.7 6.9 2.9 0.4 1.0 0.6 1.3 0.9 10.2 3.2 1.5 0.2 0.2 0.9 0.6 0.6 0.3 0.2 0.8 0.9 1.1
0.0 0.0 0.0 0.0 0.0 0.0 2.9 2.6 0.0 4.0 4.8 5.5 6.7 6.5 2.4 2.2 4.2 1.3 1.3 4.7 8.4 5.2 4.5 0.2 0.0 0.0 0.0 0.4 1.5 3.6 5.3 7.9 7.6 6.7 0.5 0.7 4.9 0.7 0.0 1.5 2.0 1.7 0.9 1.3
0.0 0.0 0.0 0.0 0.0 0.0 0.0 0.0 0.0 19.4 19.7 6.1 2.4 1.4 1.7 3.3 2.2 4.6 1.4 0.9 3.8 0.0 0.0 0.0 0.0 0.0 0.0 0.0 0.3 0.2 2.3 7.1 10.0 12.2 4.7 14.8 0.5 0.0 0.0 1.7 0.9 0.0 0.2 0.0
0.0 0.0 0.0 0.0 0.0 0.0 0.0 0.0 0.0 16.9 24.1 3.7 3.8 3.4 3.5 1.7 3.3 3.5 2.0 0.3 0.0 0.0 0.0 9.6 11.8 11.2 8.1 6.9 0.4 0.0 0.0 5.7 17.7 15.6 9.1 1.0 0.4 0.2 0.5 1.0 1.0 0.6 0.7 0.1
0.0 0.0 0.0 0.0 0.0 0.0 0.0 0.0 0.0 7.7 24.9 9.3 2.1 4.5 1.0 5.6 6.2 6.6 6.3 0.0 0.0 0.0 8.4 16.2 17.2 14.9 9.2 6.2 4.7 0.2 0.6 2.2 11.8 16.9 15.4 6.5 1.6 0.7 0.0 0.0 6.1 2.3 1.2 0.3
0.0 0.0 0.0 0.0 0.0 0.0 0.0 0.0 0.0 0.0 23.8 1.3 1.8 9.3 4.5 2.3 3.8 8.4 7.1 4.3 3.4 0.0 11.7 18.1 14.0 8.6 1.0 3.3 5.7 9.6 10.0 14.8 21.1 16.0 18.0 4.1 1.5 0.0 0.0 2.8 8.2 1.7 1.3 3.0
0.0 0.0 0.0 0.0 0.0 0.0 0.0 0.0 0.0 0.0 14.2 6.3 2.3 0.0 4.5 4.7 2.3 7.9 10.7 9.5 12.3 12.2 17.0 14.5 11.9 7.3 3.0 2.8 1.4 8.9 11.9 17.1 13.3 15.6 16.6 10.6 1.3 0.4 4.6 3.1 1.6 2.3 2.8 3.6
0.0 0.0 0.0 0.0 0.0 0.0 0.0 0.0 0.0 0.0 8.1 7.2 0.0 0.0 0.0 0.0 0.0 4.2 6.3 7.0 6.4 7.4 14.4 15.5 8.5 7.7 4.3 3.1 4.5 6.1 13.4 11.2 12.0 8.9 7.0 3.9 2.4 2.7 3.3 3.2 3.1 3.4 3.8 2.3
0.0 0.0 0.0 0.0 0.0 0.0 0.0 0.0 0.0 0.0 18.4 14.2 0.0 1.8 0.0 0.0 0.0 0.0 9.5 6.0 0.0 2.4 0.0 11.7 9.6 7.0 3.1 4.8 4.0 5.9 8.1 7.5 14.7 7.7 4.7 2.0 3.6 2.0 2.2 3.1 3.2 1.6 0.0 0.0
0.0 0.0 0.0 0.0 0.0 0.0 0.0 0.0 0.0 0.0 12.9 24.6 4.8 0.0 0.0 0.0 0.0 0.0 0.0 0.0 0.0 0.1 4.2 17.1 14.0 7.9 0.9 1.2 0.9 2.6 8.5 7.4 9.1 12.2 11.7 1.7 3.1 3.4 3.6 2.8 1.4 1.5 0.0 0.0
0.0 0.0 0.0 0.0 0.0 0.0 0.0 0.0 0.0 0.0 1.1 14.1 7.1 0.0 0.0 0.0 0.0 0.0 0.0 0.0 0.3 3.8 15.7 17.9 12.0 1.9 3.4 0.5 1.3 3.9 0.5 2.9 7.0 10.7 7.1 9.1 6.4 8.5 4.7 2.5 0.6 0.0 0.0 0.0
0.0 0.0 0.0 0.0 0.0 0.0 0.0 17.3 0.0 0.0 0.0 16.4 11.1 0.0 0.0 0.0 0.0 0.0 0.0 0.0 0.3 5.8 17.1 12.7 4.4 0.0 4.6 8.7 2.4 0.0 0.0 1.2 3.0 2.7 2.9 4.6 5.1 0.0 0.0 0.9 1.6 1.2 0.0 0.3
0.0 0.0 0.0 0.0 0.0 0.0 2.6 14.6 0.0 0.0 0.0 27.4 20.0 6.6 6.1 0.1 0.0 3.5 2.8 0.0 3.6 3.6 13.7 7.8 1.8 0.7 5.9 7.2 1.8 0.5 0.0 0.1 0.1 0.0 1.3 0.7 0.0 1.2 0.0 0.0 0.0 0.6 0.0 0.0
0.0 0.0 0.0 0.0 0.0 0.0 5.0 0.0 0.0 0.0 1.1 6.3 21.4 9.4 12.2 0.0 7.3 9.5 3.8 5.8 5.6 7.2 5.7 5.3 2.9 2.4 4.5 7.1 0.2 0.0 0.0 0.0 0.2 0.3 0.0 0.1 0.0 0.2 0.0 0.0 0.0 0.4 0.1 0.0
0.0 0.0 0.0 0.0 0.0 22.5 0.0 0.0 0.0 0.0 1.2 16.2 10.8 9.5 15.6 2.7 5.3 4.5 7.2 3.5 11.6 2.4 6.4 1.9 3.5 4.9 7.0 1.3 0.1 0.0 0.0 1.2 0.8 0.5 0.0 0.0 0.5 0.3 0.3 0.3 0.5 0.9 0.3 0.0
0.0 0.0 36.3 60.6 8.9 0.0 0.0 0.0 22.8 19.2 12.6 6.0 8.2 3.1 13.0 4.3 10.9 11.1 10.9 6.1 8.9 9.2 2.1 0.7 6.2 3.6 0.9 0.5 0.2 0.1 0.7 0.6 0.4 2.8 1.1 0.2 0.6 0.4 0.4 0.6 1.0 1.6 0.9 0.6
0.0 31.1 17.7 0.0 0.0 0.0 8.9 27.2 28.0 15.0 14.1 5.1 2.0 0.7 6.5 1.4 16.2 12.8 3.0 19.2 8.3 9.4 3.0 4.6 6.4 5.9 3.0 0.2 1.4 0.0 0.0 0.0 0.2 0.4 0.4 0.7 2.8 3.3 2.0 0.8 0.8 1.3 0.8 0.9
0.0 0.0 0.0 0.0 4.2 14.3 17.4 13.8 13.9 6.1 2.7 2.2 1.8 3.7 4.7 6.1 5.9 20.1 13.7 10.5 14.8 7.5 1.7 12.7 9.1 7.2 0.8 0.2 0.6 0.1 0.0 0.2 0.6 1.1 2.7 2.2 2.6 2.6 2.1 1.9 1.7 1.4 0.9 2.1
0.0 5.6 12.9 18.2 21.7 21.8 14.2 8.5 4.7 4.7 4.0 3.3 7.2 13.4 13.1 11.5 14.4 22.0 14.4 14.6 8.7 1.7 9.6 7.3 8.9 2.1 0.2 0.1 0.3 0.1 0.0 0.6 2.0 2.0 1.4 2.0 1.1 0.5 1.3 1.2 1.4 2.0 3.2 5.2
11.9 24.3 25.7 20.2 15.6 9.6 5.7 2.8 3.8 5.2 4.3 2.5 4.9 16.4 18.3 11.5 17.7 13.0 17.3 12.6 8.1 12.3 9.1 11.0 4.4 1.4 0.9 0.4 0.2 0.0 0.2 0.5 1.1 1.4 0.8 0.8 1.0 1.2 1.8 2.8 4.1 3.6 5.3 7.7
16.0 11.9 11.7 9.9 7.8 5.9 5.6 2.6 0.5 0.8 0.3 1.2 6.8 10.8 14.9 18.5 20.4 13.7 11.1 16.8 13.4 12.0 14.1 10.8 5.1 1.8 1.5 1.3 1.6 1.5 1.0 2.3 3.4 6.0 6.3 5.3 5.0 4.5 5.8 6.3 6.1 5.1 5.6 6.0
9.3 6.9 7.7 6.2 5.0 6.4 5.2 4.0 4.4 2.0 1.9 1.2 3.5 17.4 16.4 20.8 15.4 18.4 12.1 12.6 12.7 14.0 7.9 5.4 3.3 3.1 3.3 3.3 4.2 4.8 5.7 7.6 9.8 10.1 9.8 9.4 8.4 7.2 8.0 8.7 7.8 7.8 6.7 7.3
6.2 8.2 7.3 5.7 5.5 8.1 6.8 6.0 5.9 2.1 5.3 9.6 10.3 13.2 12.4 9.7 9.7 7.9 6.7 9.8 9.2 5.4 4.7 4.9 4.4 4.5 4.8 5.1 5.7 6.4 6.5 6.2 6.9 7.8 7.8 9.4 8.2 7.1 5.8 6.7 8.0 7.0 7.0 6.8

GFSNW_prec_snow_237.txt.gz
Snowfall_Accumulation
0.0 0.0 0.0 0.0 0.0 0.0 0.0 0.0 32.4 0.0 0.0 10.5 25.0 27.5 7.7 0.0 0.0 0.0 0.0 0.0 0.0 0.0 0.0 0.0 0.0 0.0 0.1 0.0 0.0 0.0 0.2 0.5 1.0 0.0 0.0 0.0 0.3 4.0 8.1 13.2 12.5 8.0 6.3 0.4
0.0 0.0 0.0 0.0 0.0 0.0 0.0 8.5 16.9 0.0 0.0 68.2 55.7 6.3 0.9 0.0 0.0 0.0 0.1 0.1 0.0 0.0 0.0 0.7 0.1 0.0 0.0 0.0 0.0 0.3 0.3 4.8 3.6 0.1 0.0 0.0 1.8 2.2 3.4 10.4 11.6 6.7 10.3 1.8
0.0 0.0 0.0 0.0 0.0 0.0 0.0 9.4 65.3 16.5 1.7 8.6 13.1 10.0 4.5 2.9 0.0 0.0 0.0 0.1 0.0 0.4 0.7 0.1 0.2 0.4 0.0 0.0 0.1 0.0 0.1 4.7 3.8 3.3 1.4 1.2 1.3 1.0 0.6 5.9 9.6 3.1 2.8 0.4
0.0 0.0 0.0 0.0 0.0 0.0 0.0 34.2 52.1 0.1 39.1 34.5 8.1 4.0 2.2 2.7 3.7 0.1 0.1 0.6 1.2 1.9 7.0 3.5 2.3 0.6 0.4 0.1 0.0 0.0 0.9 5.3 0.8 0.0 0.0 0.3 0.1 0.0 0.6 2.7 3.4 6.5 0.4 0.4
0.0 0.0 0.0 0.0 0.0 0.0 2.3 49.8 22.9 2.8 1.9 1.3 5.5 6.2 8.3 4.0 3.7 4.8 3.5 2.9 2.1 2.1 10.2 3.7 6.9 2.9 0.4 1.0 0.6 1.3 0.9 10.2 3.2 1.5 0.2 0.2 0.9 0.6 0.6 0.3 0.2 0.8 0.9 1.1
0.0 0.0 0.0 0.0 0.0 0.0 2.9 2.6 0.0 4.0 4.8 5.9 6.7 6.7 2.4 2.2 4.2 1.3 1.3 4.7 8.4 5.2 4.5 0.2 0.0 0.0 0.0 0.4 1.5 3.6 5.3 7.9 7.6 6.7 0.5 0.7 4.9 0.7 0.0 1.5 2.0 1.7 0.9 1.3
0.0 0.0 0.0 0.0 0.0 0.0 0.0 0.0 0.0 19.6 19.7 6.5 2.8 1.4 1.7 3.3 2.2 4.6 1.4 0.9 3.8 0.0 0.0 0.0 0.0 0.0 0.0 0.0 0.3 0.2 2.3 7.1 10.0 12.3 4.7 18.5 0.5 0.0 0.0 1.7 0.9 0.0 0.2 0.0
0.0 0.0 0.0 0.0 0.0 0.0 0.0 0.0 0.0 16.9 24.1 3.7 3.8 3.4 3.5 1.7 3.3 3.5 2.0 0.3 0.0 0.0 0.0 9.6 13.1 11.2 8.1 6.9 0.4 0.0 0.0 5.7 17.7 18.2 11.3 1.0 0.4 0.2 0.5 1.0 1.0 0.6 0.7 0.1
0.0 0.0 0.0 0.0 0.0 0.0 0.0 0.0 0.0 7.7 24.9 9.3 2.1 4.5 1.0 5.6 6.2 6.6 6.3 0.0 0.0 0.0 8.4 16.2 22.7 19.4 13.2 9.4 4.7 0.2 0.6 2.2 11.8 21.1 17.9 7.4 1.6 0.7 0.0 0.0 6.1 2.3 1.2 0.3
0.0 0.0 0.0 0.0 0.0 0.0 0.0 0.0 0.0 0.0 23.9 1.3 1.8 9.3 4.5 2.3 3.8 9.0 7.1 4.3 3.4 0.0 11.7 23.1 17.9 11.6 1.0 5.1 6.1 11.4 10.0 14.8 28.2 21.8 20.8 4.1 1.5 0.0 0.0 2.8 8.2 1.7 1.3 3.0
0.0 0.0 0.0 0.0 0.0 0.0 0.0 0.0 0.0 0.0 14.2 6.3 2.3 0.0 4.5 4.7 2.3 9.6 10.7 9.8 12.3 15.4 23.8 17.2 15.1 9.4 3.7 2.8 1.9 9.2 11.9 19.4 17.5 20.3 20.0 11.3 1.3 0.4 4.6 3.1 1.6 2.3 2.8 3.6
0.0 0.0 0.0 0.0 0.0 0.0 0.0 0.0 0.0 0.0 8.1 7.2 0.0 0.0 0.0 0.0 0.0 4.2 6.3 7.0 6.4 7.4 18.4 20.0 10.9 8.6 4.7 3.3 4.7 6.1 13.6 11.2 12.0 8.9 7.0 3.9 2.4 2.7 3.3 3.2 3.1 3.4 3.8 2.3
0.0 0.0 0.0 0.0 0.0 0.0 0.0 0.0 0.0 0.0 18.4 14.2 0.0 1.8 0.0 0.0 0.0 0.0 9.5 6.0 0.0 2.4 0.0 11.7 11.7 8.2 3.1 4.8 4.0 5.9 8.1 7.5 14.7 7.7 4.7 2.0 3.6 2.0 2.2 3.1 3.2 1.6 0.0 0.0
0.0 0.0 0.0 0.0 0.0 0.0 0.0 0.0 0.0 0.0 12.9 24.6 5.1 0.0 0.0 0.0 0.0 0.0 0.0 0.0 0.0 0.1 4.2 17.1 16.8 10.1 0.9 1.2 0.9 2.6 8.5 7.4 9.1 12.2 11.7 1.7 3.1 3.4 3.6 2.8 1.4 1.5 0.0 0.0
0.0 0.0 0.0 0.0 0.0 0.0 0.0 0.0 0.0 0.0 1.1 14.1 7.1 0.0 0.0 0.0 0.0 0.0 0.0 0.0 0.3 3.8 15.7 20.7 15.8 1.9 3.4 1.3 1.3 4.2 0.5 2.9 7.0 10.7 7.1 9.1 6.4 8.5 4.7 2.5 0.6 0.0 0.0 0.0
0.0 0.0 0.0 0.0 0.0 0.0 0.0 17.3 0.0 0.0 0.0 16.4 11.1 0.0 0.0 0.0 0.0 0.0 0.0 0.0 0.3 5.8 19.3 16.7 4.4 0.0 4.6 9.0 2.9 0.0 0.0 1.2 3.0 2.7 2.9 4.6 5.1 0.0 0.0 0.9 1.6 1.2 0.0 0.3
0.0 0.0 0.0 0.0 0.0 0.0 2.6 14.6 0.0 0.0 0.0 27.4 20.0 6.6 6.1 0.1 0.0 4.5 5.2 0.0 6.4 5.5 17.0 11.1 2.5 0.7 5.9 7.7 1.8 0.5 0.0 0.1 0.1 0.0 1.3 0.7 0.0 1.2 0.0 0.0 0.0 0.6 0.0 0.0
0.0 0.0 0.0 0.0 0.0 0.0 8.0 0.0 0.0 0.0 1.1 6.3 22.7 9.4 12.2 0.0 7.9 10.3 5.6 9.3 9.5 10.7 8.7 7.6 4.9 4.1 6.8 8.7 0.2 0.0 0.0 0.0 0.2 0.3 0.0 0.1 0.0 0.2 0.0 0.0 0.0 0.4 0.1 0.0
0.0 0.0 0.0 0.0 0.0 26.8 0.0 0.0 0.0 0.0 1.2 16.6 10.9 9.5 15.6 2.7 5.8 5.2 8.1 5.4 14.5 5.1 8.6 3.5 4.1 6.4 8.3 1.3 0.1 0.0 0.0 1.2 0.8 0.5 0.0 0.0 0.5 0.3 0.3 0.3 0.5 0.9 0.3 0.0
0.0 0.0 39.4 63.6 8.9 0.0 0.0 0.0 24.7 20.8 13.8 6.2 8.2 3.1 13.1 4.3 10.9 11.2 10.9 7.2 10.5 11.0 3.6 2.4 7.7 4.3 0.9 0.5 0.2 0.1 0.7 0.6 0.4 2.8 1.1 0.2 0.6 0.4 0.4 0.6 1.0 1.6 0.9 0.6
0.0 34.1 19.4 0.0 0.0 0.0 9.4 27.6 28.3 15.1 14.1 5.1 2.1 0.7 6.5 1.4 16.2 12.8 3.0 19.5 8.7 9.8 3.4 5.5 7.1 6.0 3.0 0.2 1.4 0.0 0.0 0.0 0.2 0.4 0.4 0.7 2.8 3.3 2.0 0.8 0.8 1.3 0.8 0.9
0.0 0.0 0.0 0.0 4.4 14.3 17.4 13.9 13.9 6.1 2.7 2.3 2.0 3.8 4.7 6.4 5.9 20.1 14.0 10.7 14.9 7.6 1.7 12.7 9.1 7.2 0.8 0.2 0.6 0.1 0.0 0.2 0.6 1.1 2.7 2.2 2.6 2.6 2.1 1.9 1.7 1.4 0.9 2.1
0.0 5.6 13.2 18.5 21.8 21.8 14.2 8.5 4.8 4.8 4.0 3.4 7.5 13.9 13.4 11.9 14.8 22.2 14.6 14.9 9.0 1.7 9.6 7.3 8.9 2.1 0.2 0.1 0.3 0.1 0.0 0.6 2.0 2.0 1.4 2.0 1.1 0.5 1.3 1.2 1.4 2.0 3.2 5.2
11.9 24.3 25.7 20.2 15.6 9.6 5.7 2.8 3.8 5.2 4.3 2.5 5.0 16.5 18.5 11.8 17.9 13.2 17.6 13.0 8.1 12.3 9.1 11.0 4.4 1.4 0.9 0.4 0.2 0.0 0.2 0.5 1.1 1.4 0.8 0.8 1.0 1.2 1.8 2.8 4.1 3.6 5.3 7.7
16.0 11.9 11.7 9.9 7.8 5.9 5.6 2.6 0.5 0.8 0.3 1.2 7.0 11.2 15.2 19.2 21.3 14.4 11.2 17.1 13.4 12.0 14.1 10.8 5.1 1.8 1.5 1.3 1.6 1.5 1.0 2.3 3.4 6.0 6.3 5.3 5.0 4.5 5.8 6.3 6.1 5.1 5.6 6.0
9.3 6.9 7.7 6.3 5.0 6.5 5.3 4.0 4.7 2.3 2.3 1.4 4.1 18.0 17.0 21.0 15.9 18.6 12.1 12.6 12.7 14.0 7.9 5.4 3.3 3.1 3.3 3.3 4.2 4.8 5.7 7.6 9.8 10.1 9.8 9.4 8.4 7.2 8.0 8.7 7.8 7.8 6.7 7.3
6.2 8.2 7.3 5.7 5.5 8.1 6.9 6.0 6.3 2.3 5.4 10.0 10.6 13.3 12.5 9.7 9.7 7.9 6.7 9.9 9.2 5.4 4.7 4.9 4.4 4.5 4.8 5.1 5.7 6.4 6.5 6.2 6.9 7.8 7.8 9.4 8.2 7.1 5.8 6.7 8.0 7.0 7.0 6.8

GFSNW_prec_snow_240.txt.gz
Snowfall_Accumulation
0.0 0.0 0.0 0.0 0.0 0.0 0.0 0.0 33.1 0.0 0.0 10.5 27.9 29.1 8.1 0.0 0.0 0.0 0.0 0.0 0.0 0.0 0.0 0.0 0.0 0.0 0.1 0.0 0.0 0.0 0.2 0.5 1.0 0.0 0.0 0.0 0.3 4.0 8.1 13.2 12.5 8.0 6.3 0.4
0.0 0.0 0.0 0.0 0.0 0.0 0.0 8.5 16.9 0.0 0.0 69.4 57.2 6.3 0.9 0.0 0.0 0.0 0.1 0.1 0.0 0.0 0.0 1.3 0.1 0.0 0.0 0.0 0.0 0.3 0.3 4.8 3.6 0.1 0.0 0.0 1.8 2.2 3.4 10.4 11.6 6.7 10.3 1.8
0.0 0.0 0.0 0.0 0.0 0.0 0.0 9.4 66.9 16.5 1.7 8.6 13.1 10.5 4.7 2.9 0.0 0.0 0.0 0.1 0.0 0.4 0.7 0.1 0.2 0.4 0.0 0.0 0.1 0.0 0.1 4.7 3.8 3.3 1.4 1.2 1.3 1.0 0.6 5.9 9.6 3.1 2.8 0.4
0.0 0.0 0.0 0.0 0.0 0.0 0.0 34.2 53.0 0.1 41.6 37.3 8.1 4.0 2.2 2.7 3.7 0.1 0.1 0.8 1.2 1.9 7.0 3.5 2.3 0.6 0.4 0.1 0.0 0.0 0.9 5.3 0.8 0.0 0.0 0.3 0.1 0.0 0.6 2.7 3.4 6.5 0.4 0.4
0.0 0.0 0.0 0.0 0.0 0.0 2.3 49.8 22.9 2.8 1.9 1.3 5.8 6.2 8.4 4.0 3.7 4.8 3.5 3.0 2.1 2.1 10.4 3.7 6.9 2.9 0.4 1.0 0.6 1.3 0.9 10.2 3.2 1.5 0.2 0.2 0.9 0.6 0.6 0.3 0.2 0.8 0.9 1.1
0.0 0.0 0.0 0.0 0.0 0.0 2.9 2.6 0.0 4.0 4.8 6.1 7.1 7.0 2.4 2.2 4.2 1.3 1.3 4.7 8.4 5.3 4.5 0.2 0.0 0.0 0.0 0.4 1.5 3.6 5.3 7.9 7.6 6.7 0.5 0.7 4.9 0.7 0.0 1.5 2.0 1.7 0.9 1.3
0.0 0.0 0.0 0.0 0.0 0.0 0.0 0.0 0.0 20.5 20.1 6.6 2.8 1.4 1.7 3.3 2.2 4.6 1.4 0.9 3.8 0.0 0.0 0.0 0.0 0.0 0.0 0.0 0.3 0.2 2.3 7.1 10.0 12.3 4.7 19.6 0.5 0.0 0.0 1.7 0.9 0.0 0.2 0.0
0.0 0.0 0.0 0.0 0.0 0.0 0.0 0.0 0.0 16.9 25.1 3.7 3.8 3.4 3.5 1.7 3.3 3.5 2.0 0.3 0.0 0.0 0.0 9.9 13.7 11.2 8.1 9.1 0.4 0.0 0.0 5.7 17.7 18.6 11.9 1.0 0.4 0.2 0.5 1.0 1.0 0.6 0.7 0.1
0.0 0.0 0.0 0.0 0.0 0.0 0.0 0.0 0.0 7.7 26.6 10.0 2.1 4.5 1.0 5.6 6.3 6.7 6.3 0.0 0.0 0.0 8.4 16.9 23.4 20.2 13.2 9.4 4.7 0.2 0.6 2.2 11.8 22.7 18.9 7.9 1.6 0.7 0.0 0.0 6.1 2.3 1.2 0.3
0.0 0.0 0.0 0.0 0.0 0.0 0.0 0.0 0.0 0.0 26.5 1.3 1.8 9.3 4.5 2.3 3.8 9.0 7.1 4.3 3.4 0.0 12.6 24.2 19.4 12.5 1.0 5.1 6.1 11.6 10.0 14.8 32.4 24.6 22.3 4.1 1.5 0.0 0.0 2.8 8.2 1.7 1.3 3.0
0.0 0.0 0.0 0.0 0.0 0.0 0.0 0.0 0.0 0.0 17.4 6.3 2.3 0.0 4.5 4.7 2.3 9.6 10.7 9.9 12.3 15.7 24.4 18.8 16.8 9.4 4.7 3.3 1.9 9.2 12.3 21.1 20.2 22.7 21.6 11.6 1.3 0.4 4.6 3.1 1.6 2.3 2.8 3.6
0.0 0.0 0.0 0.0 0.0 0.0 0.0 0.0 0.0 0.0 8.1 7.2 0.0 0.0 0.0 0.0 0.0 4.2 6.3 7.0 6.4 7.4 18.5 20.6 12.7 8.6 4.7 3.9 5.0 6.1 14.2 11.2 12.0 8.9 7.0 3.9 2.4 2.7 3.3 3.2 3.1 3.4 3.8 2.3
0.0 0.0 0.0 0.0 0.0 0.0 0.0 0.0 0.0 0.0 20.9 14.2 0.0 1.8 0.0 0.0 0.0 0.0 9.5 6.0 0.0 2.4 0.0 11.7 12.1 8.2 3.1 4.8 4.9 5.9 8.1 7.5 14.7 7.7 4.7 2.0 3.6 2.0 2.2 3.1 3.2 1.6 0.0 0.0
0.0 0.0 0.0 0.0 0.0 0.0 0.0 0.0 0.0 0.0 12.9 25.6 6.0 0.0 0.0 0.0 0.0 0.0 0.0 0.0 0.0 0.1 4.2 17.1 16.8 11.9 0.9 2.3 1.7 2.6 8.5 7.4 9.1 12.2 11.7 1.7 3.1 3.4 3.6 2.8 1.4 1.5 0.0 0.0
0.0 0.0 0.0 0.0 0.0 0.0 0.0 0.0 0.0 0.0 1.1 14.4 7.4 0.0 0.0 0.0 0.0 0.0 0.0 0.0 0.3 3.8 15.7 20.7 16.3 1.9 4.7 1.3 1.3 4.2 0.5 2.9 7.0 10.7 7.1 9.1 6.4 8.5 4.7 2.5 0.6 0.0 0.0 0.0
0.0 0.0 0.0 0.0 0.0 0.0 0.0 17.3 0.0 0.0 0.0 16.4 11.2 0.0 0.0 0.0 0.0 0.0 0.0 0.0 0.3 5.8 19.3 16.9 4.4 0.0 4.6 11.2 2.9 0.0 0.0 1.2 3.0 2.7 2.9 4.6 5.1 0.0 0.0 0.9 1.6 1.2 0.0 0.3
0.0 0.0 0.0 0.0 0.0 0.0 2.6 14.6 0.0 0.0 0.0 27.4 20.0 6.6 6.1 0.1 0.0 4.5 5.2 0.0 6.4 5.5 17.0 11.7 2.5 0.7 5.9 9.8 1.8 0.5 0.0 0.1 0.1 0.0 1.3 0.7 0.0 1.2 0.0 0.0 0.0 0.6 0.0 0.0
0.0 0.0 0.0 0.0 0.0 0.0 8.0 0.0 0.0 0.0 1.1 6.3 22.7 9.5 12.3 0.0 7.9 10.4 5.8 9.7 10.3 11.8 9.8 8.6 5.7 5.3 6.8 9.8 0.2 0.0 0.0 0.0 0.2 0.3 0.0 0.1 0.0 0.2 0.0 0.0 0.0 0.4 0.1 0.0
0.0 0.0 0.0 0.0 0.0 26.8 0.0 0.0 0.0 0.0 1.2 16.6 10.9 9.5 15.6 2.7 5.8 5.2 8.5 5.9 15.2 5.7 9.1 3.8 4.8 7.5 9.9 1.3 0.1 0.0 0.0 1.2 0.8 0.5 0.0 0.0 0.5 0.3 0.3 0.3 0.5 0.9 0.3 0.0
0.0 0.0 39.4 66.6 11.9 0.0 0.0 0.0 24.7 20.8 13.8 6.2 8.2 3.1 13.1 4.3 10.9 11.2 10.9 7.4 10.9 11.6 3.7 2.4 8.4 4.3 0.9 0.5 0.2 0.1 0.7 0.6 0.4 2.8 1.1 0.2 0.6 0.4 0.4 0.6 1.0 1.6 0.9 0.6
0.0 35.3 19.4 0.0 0.0 0.0 11.0 29.0 30.0 16.5 14.9 5.4 2.2 0.7 6.5 1.4 16.2 12.8 3.0 19.6 8.9 10.2 3.6 5.7 7.2 6.0 3.0 0.2 1.4 0.0 0.0 0.0 0.2 0.4 0.4 0.7 2.8 3.3 2.0 0.8 0.8 1.3 0.8 0.9
0.0 0.0 0.0 0.0 5.2 14.8 17.8 14.2 13.9 6.1 2.7 2.3 2.1 3.9 4.7 6.4 5.9 20.1 14.0 10.8 15.0 7.6 1.7 12.7 9.1 7.2 0.8 0.2 0.6 0.1 0.0 0.2 0.6 1.1 2.7 2.2 2.6 2.6 2.1 1.9 1.7 1.4 0.9 2.1
0.0 5.9 14.3 19.2 22.2 21.9 14.2 8.5 4.8 4.8 4.0 3.4 7.6 14.0 13.5 11.9 14.8 22.2 14.6 14.9 9.0 1.7 9.6 7.3 8.9 2.1 0.2 0.1 0.3 0.1 0.0 0.6 2.0 2.0 1.4 2.0 1.1 0.5 1.3 1.2 1.4 2.0 3.2 5.2
11.9 24.3 25.7 20.4 15.8 9.6 5.7 2.8 3.8 5.2 4.3 2.5 5.0 16.5 18.5 11.8 17.9 13.2 17.6 13.0 8.1 12.4 9.1 11.0 4.4 1.4 0.9 0.4 0.2 0.0 0.2 0.5 1.1 1.4 0.8 0.8 1.0 1.2 1.8 2.8 4.1 3.6 5.3 7.7
16.0 11.9 11.7 9.9 7.8 5.9 5.6 2.6 0.5 0.8 0.3 1.2 7.0 11.2 15.2 19.2 21.3 14.4 11.2 17.2 13.4 12.0 14.1 10.8 5.1 1.8 1.5 1.3 1.6 1.5 1.0 2.3 3.4 6.0 6.3 5.3 5.0 4.5 5.8 6.3 6.1 5.1 5.6 6.0
9.3 6.9 7.7 6.3 5.0 6.5 5.3 4.1 4.7 2.3 2.3 1.4 4.2 18.0 17.1 21.1 16.0 18.7 12.1 12.7 12.7 14.1 7.9 5.4 3.3 3.1 3.3 3.3 4.2 4.8 5.7 7.8 9.8 10.1 9.8 9.4 8.4 7.2 8.0 8.7 7.8 7.8 6.7 7.3
6.2 8.2 7.3 5.7 5.5 8.1 6.9 6.0 6.3 2.3 5.6 10.1 10.6 13.4 12.5 9.7 9.7 7.9 6.7 9.9 9.2 5.4 4.7 4.9 4.4 4.5 4.8 5.1 5.7 6.4 6.5 6.2 6.9 7.8 7.8 9.4 8.2 7.1 5.8 6.7 8.0 7.0 7.0 6.8

GFSNW_prec_snow_246.txt.gz
Snowfall_Accumulation
0.0 0.0 0.0 0.0 0.0 0.0 0.0 0.0 33.6 0.0 0.0 10.5 27.9 30.2 8.1 0.0 0.0 0.0 0.0 0.0 0.0 0.0 0.0 0.0 0.0 0.0 0.1 0.0 0.0 0.0 0.2 0.5 1.0 0.0 0.0 0.0 0.3 4.0 8.1 13.2 12.5 8.0 6.3 0.4
0.0 0.0 0.0 0.0 0.0 0.0 0.0 8.5 16.9 0.0 0.0 70.3 58.4 6.3 1.0 0.0 0.0 0.0 0.1 0.1 0.0 0.0 0.0 1.3 0.1 0.0 0.0 0.0 0.0 0.3 0.3 4.8 4.7 0.1 0.0 0.0 1.8 2.2 3.4 10.4 11.6 6.7 10.4 1.8
0.0 0.0 0.0 0.0 0.0 0.0 0.0 9.4 68.2 16.5 1.7 8.6 13.4 10.9 5.2 3.1 0.0 0.0 0.0 0.1 0.0 0.4 0.7 0.1 0.2 0.4 0.0 0.0 0.1 0.0 0.1 4.7 5.3 4.9 1.6 1.2 1.3 1.0 0.6 5.9 9.6 3.1 2.8 0.4
0.0 0.0 0.0 0.0 0.0 0.0 0.0 34.2 54.8 0.1 43.4 39.1 8.1 4.0 2.4 2.9 3.8 0.1 0.1 0.8 1.2 1.9 7.1 3.5 2.3 0.6 0.4 0.1 0.0 0.0 0.9 5.3 0.8 0.0 0.0 0.3 0.1 0.0 0.6 2.7 3.4 6.5 0.4 0.4
0.0 0.0 0.0 0.0 0.0 0.0 2.3 50.7 23.5 2.8 1.9 1.3 5.8 6.2 8.8 4.3 3.7 4.9 3.5 3.0 2.1 2.1 10.6 3.7 6.9 2.9 0.4 1.0 0.6 1.3 0.9 10.2 3.2 1.5 0.2 0.2 0.9 0.6 0.6 0.3 0.2 0.8 0.9 1.1
0.0 0.0 0.0 0.0 0.0 0.0 2.9 2.6 0.0 4.0 4.8 6.1 7.1 7.7 2.4 2.2 4.2 1.3 1.3 4.7 8.4 5.4 4.5 0.2 0.0 0.0 0.0 0.4 1.5 3.6 5.3 9.7 9.9 9.2 0.5 1.5 5.4 0.7 0.0 1.5 2.0 1.7 0.9 1.3
0.0 0.0 0.0 0.0 0.0 0.0 0.0 0.0 0.0 21.5 21.2 7.2 2.8 1.4 1.7 3.3 2.2 4.6 1.4 0.9 3.8 0.0 0.0 0.0 0.0 0.0 0.0 0.0 0.3 0.2 2.3 10.2 13.1 15.1 5.4 20.8 0.5 0.0 0.0 1.7 0.9 0.0 0.2 0.0
0.0 0.0 0.0 0.0 0.0 0.0 0.0 0.0 0.0 16.9 26.1 3.8 3.9 3.4 3.5 1.7 3.3 3.5 2.0 0.3 0.0 0.0 0.0 10.6 16.3 12.1 8.3 9.1 0.4 0.0 0.0 8.7 22.4 22.0 13.2 1.0 0.4 0.2 0.5 1.0 1.0 0.6 0.7 0.1
0.0 0.0 0.0 0.0 0.0 0.0 0.0 0.0 0.0 7.7 29.5 11.0 2.1 4.5 1.0 5.7 6.3 6.7 6.3 0.0 0.0 0.0 8.4 20.3 27.8 23.0 14.3 9.8 4.7 0.2 0.6 2.2 12.4 26.6 22.1 9.3 1.6 0.7 0.0 0.0 6.6 2.3 1.2 0.3
0.0 0.0 0.0 0.0 0.0 0.0 0.0 0.0 0.0 0.0 32.6 1.3 1.8 9.3 4.5 2.3 3.8 9.2 7.1 4.3 3.4 0.0 13.8 28.4 22.7 13.8 1.0 5.2 6.1 11.6 10.3 15.1 34.7 26.8 25.3 5.5 1.5 0.0 0.0 2.8 8.2 1.7 1.3 3.0
0.0 0.0 0.0 0.0 0.0 0.0 0.0 0.0 0.0 0.0 17.4 6.3 2.3 0.0 4.5 4.7 2.3 10.2 10.7 9.9 12.3 16.2 26.1 20.1 17.3 10.9 5.0 3.6 1.9 9.2 12.5 22.0 21.5 23.0 23.6 12.5 1.3 0.4 4.6 3.1 1.6 2.3 2.8 3.6
0.0 0.0 0.0 0.0 0.0 0.0 0.0 0.0 0.0 0.0 8.1 7.2 0.0 0.0 0.0 0.0 0.0 4.2 6.3 7.0 6.4 7.4 19.2 20.9 13.0 9.0 5.0 4.2 5.3 6.1 14.6 11.9 12.9 10.0 7.0 3.9 2.4 2.7 3.3 3.2 3.1 3.4 3.8 2.3
0.0 0.0 0.0 0.0 0.0 0.0 0.0 0.0 0.0 0.0 24.3 19.2 0.0 1.8 0.0 0.0 0.0 0.0 9.5 6.0 0.0 2.4 0.0 11.7 12.1 8.8 3.3 5.1 4.9 5.9 8.1 7.5 14.9 9.2 4.7 2.0 3.6 2.0 2.2 3.1 3.2 1.6 0.0 0.0
0.0 0.0 0.0 0.0 0.0 0.0 0.0 0.0 0.0 0.0 12.9 29.6 7.8 0.0 0.0 0.0 0.0 0.0 0.0 0.0 0.0 0.1 4.2 17.1 18.4 12.9 0.9 2.3 1.7 2.9 8.5 7.4 9.1 12.2 11.7 1.7 3.1 3.4 3.6 2.8 1.4 1.5 0.0 0.0
0.0 0.0 0.0 0.0 0.0 0.0 0.0 0.0 0.0 0.0 1.1 16.5 7.7 0.0 0.0 0.0 0.0 0.0 0.0 0.0 0.3 3.8 15.7 22.3 18.7 1.9 4.7 1.3 1.3 4.2 0.5 2.9 7.1 11.2 7.1 9.1 6.4 8.5 4.7 2.5 0.6 0.0 0.0 0.0
0.0 0.0 0.0 0.0 0.0 0.0 0.0 17.3 0.0 0.0 0.0 16.4 12.1 0.0 0.0 0.0 0.0 0.0 0.0 0.0 0.3 5.8 21.7 18.2 4.4 0.0 4.6 11.9 3.1 0.0 0.0 1.2 3.0 2.7 2.9 4.6 5.1 0.0 0.0 0.9 1.6 1.2 0.0 0.3
0.0 0.0 0.0 0.0 0.0 0.0 2.6 14.6 0.0 0.0 0.0 27.4 20.4 6.9 6.1 0.1 0.0 4.5 5.2 0.0 6.4 5.5 19.0 12.7 2.5 0.7 5.9 10.3 1.9 0.5 0.0 0.1 0.1 0.0 1.3 0.7 0.0 1.2 0.0 0.0 0.0 0.6 0.0 0.0
0.0 0.0 0.0 0.0 0.0 0.0 8.0 0.0 0.0 0.0 1.1 6.3 23.0 9.7 12.5 0.0 8.0 10.4 5.8 9.7 10.3 13.3 10.2 9.0 5.8 5.3 6.8 10.4 0.2 0.0 0.0 0.0 0.2 0.3 0.0 0.1 0.0 0.2 0.0 0.0 0.0 0.4 0.1 0.0
0.0 0.0 0.0 0.0 0.0 26.8 0.0 0.0 0.0 0.0 1.2 16.6 10.9 9.5 15.7 2.7 5.8 5.2 8.6 5.9 16.1 5.7 9.5 4.0 4.9 8.2 10.8 1.3 0.1 0.0 0.0 1.2 0.8 0.5 0.0 0.0 0.5 0.3 0.3 0.3 0.5 0.9 0.3 0.0
0.0 0.0 39.4 70.7 11.9 0.0 0.0 0.0 24.7 20.8 13.8 6.2 8.2 3.1 13.1 4.3 10.9 11.5 11.1 7.9 11.7 13.1 4.0 2.4 8.8 4.3 0.9 0.5 0.2 0.1 0.7 0.6 0.4 2.8 1.1 0.2 0.6 0.4 0.4 0.6 1.0 1.6 0.9 0.6
0.0 39.4 22.9 0.0 0.0 0.0 11.0 30.7 30.4 17.1 15.1 5.4 2.2 0.7 6.5 1.4 16.3 13.1 3.0 20.1 9.4 10.9 4.2 6.2 7.7 6.0 3.0 0.2 1.4 0.0 0.0 0.0 0.2 0.4 0.4 0.7 2.8 3.3 2.0 0.8 0.8 1.3 0.8 0.9
0.0 0.0 0.0 0.0 8.3 18.8 21.2 15.9 14.4 6.3 2.9 2.3 2.1 3.9 4.7 6.4 5.9 20.2 14.1 10.8 15.3 7.8 1.7 13.4 9.3 7.2 0.8 0.2 0.6 0.1 0.0 0.2 0.6 1.1 2.7 2.2 2.6 2.6 2.1 1.9 1.7 1.4 0.9 2.1
0.0 7.2 16.2 21.0 24.0 24.0 15.4 9.1 4.9 4.9 4.0 3.5 7.6 14.1 13.5 12.0 14.8 22.2 14.8 15.0 9.0 1.7 9.9 7.3 9.1 2.1 0.2 0.1 0.3 0.1 0.0 0.6 2.0 2.0 1.4 2.0 1.1 0.5 1.3 1.2 1.4 2.0 3.2 5.2
13.0 25.3 26.5 21.4 16.7 10.0 5.7 2.9 3.8 5.2 4.3 2.5 5.0 16.5 18.6 11.9 18.0 13.4 17.7 13.1 8.2 12.5 9.2 11.1 4.4 1.4 0.9 0.4 0.2 0.0 0.2 0.5 1.1 1.4 0.8 0.8 1.0 1.2 1.8 2.8 4.1 3.6 5.3 7.7
16.6 12.3 12.2 10.0 7.9 5.9 5.6 2.6 0.5 0.8 0.3 1.2 7.0 11.3 15.3 19.3 21.5 14.4 11.4 17.4 13.5 12.1 14.4 10.9 5.1 1.8 1.5 1.3 1.6 1.5 1.0 2.3 3.4 6.2 6.3 5.3 5.1 4.9 6.2 6.6 6.2 5.1 5.6 6.0
9.4 7.0 7.8 6.3 5.0 6.6 5.5 4.1 4.7 2.3 2.3 1.4 4.2 18.2 17.2 21.2 16.3 18.9 12.2 12.8 13.0 14.5 7.9 5.4 3.3 3.1 3.3 3.3 4.2 4.9 6.9 9.8 11.3 10.9 10.2 9.5 8.4 7.2 8.0 8.7 7.8 7.8 6.7 7.4
6.3 8.2 7.4 5.8 5.7 8.1 7.1 6.1 6.4 2.3 5.6 10.3 10.7 13.5 12.6 9.9 9.9 8.1 6.8 10.2 9.4 5.4 4.7 4.9 4.4 4.5 5.0 6.5 8.1 8.5 8.1 7.9 9.2 9.8 8.8 10.1 8.9 7.6 6.0 6.9 8.2 7.1 7.0 6.8

GFSNW_prec_snow_252.txt.gz
Snowfall_Accumulation
0.0 0.0 0.0 0.0 0.0 0.0 0.0 0.0 33.7 0.0 0.0 10.5 27.9 30.3 8.1 0.0 0.0 0.0 0.0 0.0 0.0 0.0 0.0 0.0 0.0 0.0 0.1 0.0 0.0 0.0 0.2 0.5 1.0 0.0 0.0 0.0 0.3 4.0 8.1 13.8 14.1 8.6 7.0 0.4
0.0 0.0 0.0 0.0 0.0 0.0 0.0 8.5 16.9 0.0 0.0 70.4 58.6 6.3 1.0 0.0 0.0 0.0 0.1 0.1 0.0 0.0 0.0 1.3 0.1 0.0 0.0 0.0 0.0 0.3 0.3 4.8 5.8 0.1 0.0 0.0 1.8 2.2 3.4 10.4 11.6 9.3 12.5 3.1
0.0 0.0 0.0 0.0 0.0 0.0 0.0 9.4 68.2 16.5 1.7 8.6 13.4 10.9 5.3 3.2 0.0 0.0 0.0 0.1 0.0 0.4 0.7 0.1 0.2 0.4 0.0 0.0 0.1 0.0 0.1 4.7 6.2 6.2 1.6 1.2 1.3 1.0 0.6 6.1 11.3 4.5 3.4 0.4
0.0 0.0 0.0 0.0 0.0 0.0 0.0 34.2 55.3 0.1 43.4 39.1 8.1 4.0 2.5 3.0 3.9 0.1 0.1 0.9 1.2 1.9 7.2 3.5 2.3 0.6 0.4 0.1 0.0 0.0 0.9 5.3 0.8 0.0 0.0 0.3 0.1 0.0 0.6 2.8 3.4 7.2 0.4 0.4
0.0 0.0 0.0 0.0 0.0 0.0 2.3 50.7 23.5 2.8 1.9 1.3 5.8 6.2 8.9 4.4 3.8 5.0 3.5 3.1 2.1 2.2 10.8 3.7 6.9 2.9 0.4 1.0 0.6 1.3 0.9 10.2 3.2 1.5 0.2 0.2 0.9 0.6 0.6 0.3 0.2 0.8 0.9 1.1
0.0 0.0 0.0 0.0 0.0 0.0 2.9 2.6 0.0 4.0 5.1 6.1 7.1 7.8 2.4 2.3 4.2 1.3 1.3 4.7 8.6 5.6 4.5 0.2 0.0 0.0 0.0 0.4 1.5 3.6 5.3 9.7 9.9 9.4 0.5 1.5 5.6 0.7 0.0 1.5 2.0 1.7 0.9 1.3
0.0 0.0 0.0 0.0 0.0 0.0 0.0 0.0 0.0 21.8 21.6 7.3 2.8 1.4 1.7 3.4 2.2 4.7 1.4 0.9 3.9 0.0 0.0 0.0 0.0 0.0 0.0 0.0 0.3 0.2 2.3 10.2 14.1 15.6 5.4 21.0 0.5 0.0 0.0 1.7 0.9 0.0 0.2 0.0
0.0 0.0 0.0 0.0 0.0 0.0 0.0 0.0 0.0 17.4 26.5 3.8 4.1 3.4 3.5 1.7 3.3 3.5 2.0 0.3 0.0 0.0 0.0 12.0 18.3 12.8 8.7 9.1 0.4 0.0 0.0 8.8 23.1 23.1 13.7 1.0 0.4 0.2 0.5 1.0 1.0 0.6 0.7 0.1
0.0 0.0 0.0 0.0 0.0 0.0 0.0 0.0 0.0 7.7 30.3 11.3 2.1 4.5 1.0 5.8 6.3 6.7 6.3 0.0 0.0 0.0 8.4 21.2 29.7 23.3 14.3 10.0 4.7 0.2 0.6 2.2 12.4 26.6 23.2 9.6 1.6 0.7 0.0 0.0 6.6 2.3 1.2 0.3
0.0 0.0 0.0 0.0 0.0 0.0 0.0 0.0 0.0 0.0 33.4 1.4 1.9 9.4 4.6 2.3 3.8 9.3 7.1 4.3 3.4 0.0 14.6 30.1 25.1 15.7 2.0 5.5 6.3 11.6 10.4 15.5 35.6 27.3 25.9 5.5 1.5 0.0 0.0 2.8 8.2 1.7 1.3 3.0
0.0 0.0 0.0 0.0 0.0 0.0 0.0 0.0 0.0 0.0 17.7 6.3 2.3 0.0 4.5 4.7 2.3 10.3 10.7 10.0 12.3 16.2 26.8 20.6 17.3 11.1 5.0 3.6 1.9 9.2 12.5 22.1 21.5 23.0 23.6 13.2 1.3 0.4 4.6 3.1 1.6 2.3 2.8 3.6
0.0 0.0 0.0 0.0 0.0 0.0 0.0 0.0 0.0 0.0 8.1 7.2 0.0 0.0 0.0 0.0 0.0 4.2 6.3 7.1 6.5 7.4 20.3 21.7 13.5 9.0 5.0 4.2 5.3 6.1 14.6 11.9 12.9 10.0 7.0 3.9 2.4 2.7 3.3 3.2 3.1 3.4 3.8 2.3
0.0 0.0 0.0 0.0 0.0 0.0 0.0 0.0 0.0 0.0 24.3 19.2 0.0 1.8 0.0 0.0 0.0 0.0 9.8 6.0 0.0 2.4 0.0 11.7 13.6 10.4 3.3 5.4 4.9 5.9 8.1 7.5 14.9 9.2 4.7 2.0 3.6 2.0 2.2 3.1 3.2 1.6 0.0 0.0
0.0 0.0 0.0 0.0 0.0 0.0 0.0 0.0 0.0 0.0 12.9 34.0 9.2 0.0 0.0 0.0 0.0 0.0 0.0 0.0 0.0 0.1 4.2 18.9 23.5 15.9 0.9 2.3 1.7 2.9 8.5 7.4 9.1 12.2 11.7 1.7 3.1 3.4 3.6 2.8 1.4 1.5 0.0 0.0
0.0 0.0 0.0 0.0 0.0 0.0 0.0 0.0 0.0 0.0 1.1 21.1 8.2 0.0 0.0 0.0 0.0 0.0 0.0 0.0 0.3 3.8 20.1 28.6 22.9 2.8 5.3 1.3 2.1 4.6 0.5 2.9 7.1 11.2 7.1 9.1 6.4 8.5 4.7 2.5 0.6 0.0 0.0 0.0
0.0 0.0 0.0 0.0 0.0 0.0 0.0 17.3 0.0 0.0 0.0 16.4 15.7 0.0 0.0 0.0 0.0 0.0 0.0 0.0 0.3 5.8 23.5 21.7 4.4 0.0 4.6 14.2 3.6 0.0 0.0 1.2 3.0 2.7 2.9 4.6 5.1 0.0 0.0 0.9 1.6 1.2 0.0 0.3
0.0 0.0 0.0 0.0 0.0 0.0 2.6 14.6 0.0 0.0 0.0 27.4 23.6 7.4 6.1 0.1 0.0 4.5 5.2 0.0 6.4 5.5 23.4 16.0 4.8 0.7 5.9 15.1 3.6 0.5 0.0 0.1 0.1 0.0 1.3 0.7 0.0 1.2 0.0 0.0 0.0 0.6 0.0 0.0
0.0 0.0 0.0 0.0 0.0 0.0 8.0 0.0 0.0 0.0 1.1 6.3 25.6 9.9 12.5 0.0 8.0 10.6 5.8 9.7 10.3 14.0 10.2 9.6 5.8 5.3 6.9 10.9 0.2 0.0 0.0 0.0 0.2 0.3 0.0 0.1 0.0 0.2 0.0 0.0 0.0 0.4 0.1 0.0
0.0 0.0 0.0 0.0 0.0 26.8 0.0 0.0 0.0 0.0 1.2 19.3 11.7 9.5 15.7 2.7 5.8 5.2 8.6 5.9 16.3 5.7 9.5 4.0 4.9 8.2 10.8 1.3 0.1 0.0 0.0 1.2 0.8 0.5 0.0 0.0 0.5 0.3 0.3 0.3 0.5 0.9 0.3 0.0
0.0 0.0 39.4 73.9 11.9 0.0 0.0 0.0 24.7 20.8 13.8 6.2 8.6 3.1 13.1 4.3 10.9 11.5 11.1 7.9 11.7 13.1 4.0 2.4 8.9 4.3 0.9 0.5 0.2 0.1 0.7 0.6 0.4 2.8 1.1 0.2 0.6 0.4 0.4 0.6 1.0 1.6 0.9 0.6
0.0 41.4 26.3 0.0 0.0 0.0 11.0 31.7 31.4 17.8 15.6 5.6 2.2 0.7 6.5 1.4 16.3 13.1 3.0 20.1 9.4 11.0 4.2 6.2 7.7 6.0 3.0 0.2 1.4 0.0 0.0 0.0 0.2 0.4 0.4 0.7 2.8 3.3 2.0 0.8 0.8 1.3 0.8 0.9
0.0 0.0 0.0 2.2 13.2 23.6 24.4 16.9 14.6 6.3 2.9 2.3 2.1 3.9 4.7 6.4 5.9 20.2 14.1 10.9 15.3 7.8 1.7 13.6 9.3 7.2 0.8 0.2 0.6 0.1 0.0 0.2 0.6 1.1 2.7 2.2 2.6 2.6 2.1 1.9 1.7 1.4 0.9 2.1
0.0 9.5 18.5 24.1 27.6 27.5 17.2 9.7 4.9 4.9 4.0 3.5 7.6 14.1 13.5 12.0 14.8 22.2 14.8 15.0 9.0 1.7 10.0 7.3 9.1 2.1 0.2 0.1 0.3 0.1 0.0 0.6 2.0 2.0 1.4 2.0 1.3 0.5 1.3 1.2 2.8 3.5 5.6 10.0
15.8 27.5 28.0 22.6 17.9 10.2 5.8 2.9 3.8 5.2 4.3 2.5 5.0 16.5 18.6 11.9 18.0 13.4 17.7 13.1 8.2 12.6 9.2 11.1 4.4 1.4 0.9 0.4 0.2 0.0 0.3 0.5 1.2 1.6 1.4 1.9 2.1 2.6 5.9 7.3 8.1 7.3 9.0 11.0
18.7 14.3 13.8 10.2 7.9 5.9 5.6 2.6 0.5 0.8 0.3 1.2 7.0 11.3 15.3 19.3 21.6 14.4 11.4 17.4 13.5 12.1 14.4 10.9 5.1 1.8 1.5 1.3 1.7 1.6 1.0 3.0 4.4 7.1 7.7 7.3 7.5 7.4 9.6 10.3 9.9 8.2 8.5 8.8
11.0 8.2 8.8 6.6 5.1 6.7 5.5 4.1 4.7 2.3 2.3 1.4 4.2 18.2 17.5 21.4 16.4 19.0 12.2 12.8 13.0 14.6 7.9 5.4 3.3 3.1 3.4 3.3 4.2 5.1 7.8 11.3 13.3 13.2 12.7 11.9 10.7 9.3 10.4 10.9 10.0 10.4 9.1 9.8
7.2 8.2 7.4 5.9 5.8 8.1 7.1 6.1 6.4 2.3 5.6 10.3 10.7 13.6 12.6 9.9 10.0 8.1 6.8 10.2 9.5 5.4 4.7 4.9 4.4 4.6 5.2 6.6 8.4 9.1 9.0 9.5 11.4 12.3 11.1 12.5 10.8 8.6 6.4 8.9 9.9 7.9 7.1 6.9

GFSNW_prec_snow_258.txt.gz
Snowfall_Accumulation
0.0 0.0 0.0 0.0 0.0 0.0 0.0 0.0 33.7 0.0 0.0 10.5 27.9 30.3 8.1 0.0 0.0 0.0 0.0 0.0 0.0 0.0 0.0 0.0 0.0 0.0 0.1 0.0 0.0 0.0 0.2 0.5 1.0 0.0 0.0 0.0 0.3 4.0 8.1 14.0 14.1 8.6 7.2 0.4
0.0 0.0 0.0 0.0 0.0 0.0 0.0 8.5 16.9 0.0 0.0 70.4 58.6 6.3 1.0 0.0 0.0 0.0 0.1 0.1 0.0 0.0 0.0 1.3 0.1 0.0 0.0 0.0 0.0 0.3 0.3 4.8 5.8 0.1 0.0 0.0 1.8 2.2 3.4 10.4 11.6 9.3 13.0 3.1
0.0 0.0 0.0 0.0 0.0 0.0 0.0 9.4 68.2 16.5 1.7 8.6 13.4 10.9 5.3 3.2 0.0 0.0 0.0 0.1 0.0 0.4 0.7 0.1 0.2 0.4 0.0 0.0 0.1 0.0 0.1 4.7 6.2 6.2 1.6 1.2 1.3 1.0 0.6 6.1 11.3 4.5 3.5 0.4
0.0 0.0 0.0 0.0 0.0 0.0 0.0 34.2 55.3 0.1 43.4 39.2 8.1 4.0 2.5 3.0 3.9 0.1 0.1 0.9 1.2 1.9 7.2 3.5 2.3 0.6 0.4 0.1 0.0 0.0 0.9 5.3 0.8 0.0 0.0 0.3 0.1 0.0 0.6 2.8 3.4 7.3 0.4 0.4
0.0 0.0 0.0 0.0 0.0 0.0 2.3 50.7 23.5 2.8 1.9 1.3 5.8 6.2 9.1 4.4 3.8 5.1 3.6 3.2 2.1 2.2 10.9 3.7 6.9 2.9 0.4 1.0 0.6 1.3 0.9 10.2 3.2 1.5 0.2 0.2 0.9 0.6 0.6 0.3 0.2 0.8 0.9 1.1
0.0 0.0 0.0 0.0 0.0 0.0 2.9 2.6 0.0 4.0 5.1 6.1 7.1 7.8 2.5 2.3 4.2 1.3 1.3 4.7 8.6 5.6 4.5 0.2 0.0 0.0 0.0 0.4 1.5 3.6 5.3 9.7 9.9 9.4 0.5 1.5 5.6 0.7 0.0 1.5 2.0 1.7 0.9 1.3
0.0 0.0 0.0 0.0 0.0 0.0 0.0 0.0 0.0 21.8 21.6 7.3 2.8 1.4 1.7 3.4 2.2 4.7 1.4 0.9 3.9 0.0 0.0 0.0 0.0 0.0 0.0 0.0 0.3 0.2 2.3 10.2 14.1 15.7 5.4 21.1 0.5 0.0 0.0 1.7 0.9 0.0 0.2 0.0
0.0 0.0 0.0 0.0 0.0 0.0 0.0 0.0 0.0 17.4 26.5 3.8 4.1 3.4 3.5 1.7 3.3 3.5 2.0 0.3 0.0 0.0 0.0 12.9 18.8 12.8 8.7 9.1 0.4 0.0 0.0 8.8 23.1 23.2 13.7 1.0 0.4 0.2 0.5 1.0 1.0 0.6 0.7 0.1
0.0 0.0 0.0 0.0 0.0 0.0 0.0 0.0 0.0 7.7 30.3 11.3 2.1 4.5 1.0 5.8 6.3 6.7 6.3 0.0 0.0 0.0 8.4 21.4 30.3 23.6 14.4 10.0 4.7 0.2 0.6 2.2 12.5 26.9 23.9 9.6 1.6 0.7 0.0 0.0 6.6 2.3 1.2 0.3
0.0 0.0 0.0 0.0 0.0 0.0 0.0 0.0 0.0 0.0 33.7 1.4 1.9 9.4 4.6 2.3 3.8 9.3 7.1 4.3 3.4 0.0 14.7 30.3 25.1 15.7 2.0 5.5 6.3 11.6 10.4 15.5 35.7 27.4 26.4 5.5 1.5 0.0 0.0 2.8 8.2 1.7 1.3 3.0
0.0 0.0 0.0 0.0 0.0 0.0 0.0 0.0 0.0 0.0 17.7 6.3 2.3 0.0 4.5 4.7 2.3 10.3 10.7 10.1 12.3 16.2 26.9 20.7 17.3 11.1 5.0 3.6 1.9 9.2 12.5 22.1 21.5 23.2 24.2 13.4 1.3 0.4 4.6 3.1 1.6 2.3 2.8 3.6
0.0 0.0 0.0 0.0 0.0 0.0 0.0 0.0 0.0 0.0 8.1 7.2 0.0 0.0 0.0 0.0 0.0 4.2 6.3 7.1 6.5 7.4 20.5 21.9 13.5 9.0 5.0 4.2 5.3 6.1 14.6 11.9 12.9 10.0 7.0 3.9 2.4 2.7 3.3 3.2 3.1 3.4 3.8 2.3
0.0 0.0 0.0 0.0 0.0 0.0 0.0 0.0 0.0 0.0 25.0 20.1 0.0 1.8 0.0 0.0 0.0 0.0 10.7 6.0 0.0 2.4 0.0 12.5 13.9 10.6 3.3 5.4 4.9 5.9 8.1 7.5 14.9 9.2 4.7 2.0 3.6 2.0 2.2 3.1 3.2 1.6 0.0 0.0
0.0 0.0 0.0 0.0 0.0 0.0 0.0 0.0 0.0 0.0 12.9 35.3 9.4 0.0 0.0 0.0 0.0 0.0 0.0 0.0 0.0 0.1 4.2 21.5 25.4 16.4 0.9 2.3 1.7 2.9 8.5 7.4 9.1 12.2 11.7 1.7 3.1 3.4 3.6 2.8 1.4 1.5 0.0 0.0
0.0 0.0 0.0 0.0 0.0 0.0 0.0 0.0 0.0 0.0 1.1 22.5 8.5 0.0 0.0 0.0 0.0 0.0 0.0 0.0 0.3 4.5 23.1 31.6 24.1 2.8 5.6 1.3 2.1 4.6 0.5 2.9 7.1 11.2 7.1 9.1 6.4 8.5 4.7 2.5 0.6 0.0 0.0 0.0
0.0 0.0 0.0 0.0 0.0 0.0 0.0 17.8 0.0 0.0 0.0 18.8 17.4 0.0 0.0 0.0 0.0 0.0 0.0 0.0 0.3 5.8 26.1 23.2 5.0 0.0 4.9 15.6 3.8 0.0 0.0 1.2 3.0 2.7 2.9 4.6 5.1 0.0 0.0 0.9 1.6 1.2 0.0 0.3
0.0 0.0 0.0 0.0 0.0 0.0 2.6 14.6 0.0 0.0 0.0 31.1 27.5 8.4 6.1 0.1 0.0 4.5 5.2 0.0 6.4 5.5 25.5 17.4 5.2 1.0 6.6 17.3 4.3 0.5 0.0 0.1 0.1 0.0 1.3 0.7 0.0 1.2 0.0 0.0 0.0 0.6 0.0 0.0
0.0 0.0 0.0 0.0 0.0 0.0 8.0 0.0 0.0 0.0 1.1 6.3 29.3 10.4 12.5 0.0 8.0 10.8 5.8 10.3 11.0 16.1 12.4 11.2 6.7 6.1 8.2 12.0 0.2 0.0 0.0 0.0 0.2 0.3 0.0 0.1 0.0 0.2 0.0 0.0 0.0 0.4 0.1 0.0
0.0 0.0 0.0 0.0 0.0 27.1 0.0 0.0 0.0 0.0 1.2 22.6 13.7 9.5 15.7 2.7 5.8 5.2 8.9 5.9 17.2 6.2 10.3 4.2 5.0 8.5 11.0 1.3 0.1 0.0 0.0 1.2 0.8 0.5 0.0 0.0 0.5 0.3 0.3 0.3 0.5 0.9 0.3 0.0
0.0 0.0 39.5 73.9 11.9 0.0 0.0 0.0 24.7 22.3 13.8 7.9 9.6 3.1 13.1 4.3 10.9 11.5 11.1 8.0 11.7 13.2 4.0 2.4 9.0 4.3 0.9 0.5 0.2 0.1 0.7 0.6 0.4 2.8 1.1 0.2 0.6 0.4 0.4 0.6 1.0 1.6 0.9 0.6
0.0 41.6 26.4 0.0 0.0 0.0 11.0 35.1 34.0 19.8 17.4 6.1 2.2 0.7 6.5 1.4 16.3 13.1 3.0 20.1 9.4 11.0 4.2 6.2 7.7 6.0 3.0 0.2 1.4 0.0 0.0 0.0 0.2 0.4 0.4 0.7 2.8 3.3 2.1 0.9 0.8 1.4 0.9 1.1
1.1 0.0 0.0 2.2 14.9 27.4 29.2 19.6 15.8 6.6 2.9 2.3 2.1 3.9 4.7 6.4 5.9 20.2 14.2 10.9 15.4 7.8 1.7 14.1 9.3 7.2 0.8 0.2 0.6 0.1 0.0 0.2 0.6 1.1 2.7 2.2 2.6 2.8 2.3 2.4 2.5 2.6 2.6 4.0
0.0 9.9 19.0 24.8 29.1 29.9 19.1 10.2 5.3 4.9 4.0 3.5 7.6 14.1 13.5 12.0 14.8 22.3 14.8 15.2 9.2 1.7 10.3 7.3 9.1 2.1 0.2 0.1 0.3 0.1 0.0 0.6 2.0 2.0 1.4 2.1 1.7 1.3 2.5 3.0 5.4 6.0 7.5 12.4
16.7 28.4 28.7 23.2 19.0 10.2 5.8 2.9 3.8 5.2 4.3 2.5 5.0 16.5 18.6 11.9 18.1 13.7 17.9 13.1 8.2 12.7 9.3 11.1 4.4 1.4 0.9 0.4 0.2 0.0 0.3 0.5 1.2 1.6 1.6 2.3 3.0 3.9 7.2 9.2 10.6 9.1 11.1 13.9
19.8 15.4 14.1 10.2 7.9 5.9 5.6 2.6 0.5 0.8 0.3 1.2 7.0 11.3 15.4 19.4 21.8 14.4 11.4 17.5 13.5 12.1 14.4 10.9 5.1 1.8 1.5 1.3 1.7 1.6 1.0 3.0 4.7 7.4 8.2 8.2 8.7 8.4 11.2 12.6 11.9 10.2 10.9 11.5
11.8 8.8 8.9 6.6 5.1 6.7 5.5 4.1 4.7 2.3 2.3 1.4 4.2 18.4 17.8 21.5 16.4 19.1 12.2 12.9 13.0 14.6 7.9 5.4 3.3 3.1 3.4 3.3 4.2 5.2 7.8 11.6 13.6 13.7 13.3 13.0 11.7 10.9 12.1 12.1 11.1 11.8 10.5 11.4
7.4 8.2 7.4 5.9 5.8 8.1 7.1 6.1 6.4 2.3 5.6 10.4 10.9 13.6 12.6 10.0 10.1 8.2 6.8 10.2 9.5 5.4 4.7 4.9 4.4 4.6 5.2 6.6 8.4 9.1 9.1 9.5 11.4 12.9 11.9 13.6 12.0 9.0 6.5 9.2 10.3 8.0 7.3 7.1